GFSGL_850_rhum_000.txt.gz
RH
34 34 33 33 30 29 30 31 39 40 36 53 59 67 68 69 71 73 74 75 74 69 64 61 64 65 70 60 57 58 56 56 57 54 51 55 80 66 81 100 99 100 96
33 31 33 29 31 32 44 42 49 58 62 68 71 69 68 66 66 69 73 73 74 74 72 70 64 65 67 67 65 61 58 54 53 54 57 59 78 34 19 27 87 96 100
34 35 37 34 36 56 60 59 60 64 67 66 62 62 61 64 67 72 76 81 81 82 82 79 73 72 71 70 66 64 63 60 55 56 55 58 66 85 58 54 77 84 97
54 43 37 51 42 52 52 45 48 56 53 57 57 61 64 68 74 81 84 86 90 92 96 95 92 96 94 85 73 69 69 68 64 60 54 54 60 82 81 47 96 84 94
59 46 52 44 39 44 48 39 44 54 53 56 58 60 68 77 82 86 91 96 96 100 100 98 98 96 99 98 97 89 78 77 75 66 63 59 59 76 88 76 90 99 99
46 52 50 40 47 46 35 46 54 52 52 56 60 67 79 85 87 96 100 100 100 100 99 98 93 94 96 92 88 93 99 99 96 80 68 62 58 65 92 94 100 98 100
52 52 42 47 44 38 39 54 51 53 55 58 66 80 89 93 97 100 100 100 98 99 100 98 100 96 95 98 96 91 88 94 95 93 92 67 57 57 68 100 99 98 100
52 40 49 46 42 40 52 52 52 56 60 67 84 93 96 99 92 96 97 100 100 100 100 100 99 96 97 98 96 96 97 98 95 91 85 95 66 59 63 93 100 100 100
42 50 44 44 42 49 53 54 58 64 73 86 94 99 100 94 84 84 96 100 100 100 100 98 97 97 93 94 95 95 96 94 96 97 91 90 85 89 87 93 99 99 100
48 45 59 42 48 55 55 57 63 69 85 100 98 99 99 85 85 94 97 97 97 100 100 100 100 96 95 96 96 95 98 95 98 96 98 96 88 82 98 89 100 100 100
52 57 43 49 58 57 56 63 67 88 100 100 100 98 96 99 94 92 95 97 98 98 100 98 93 96 95 96 97 95 92 98 96 99 96 93 93 94 90 99 100 93 99
54 46 51 60 63 56 63 70 86 100 97 100 100 96 92 97 97 96 94 97 98 98 96 97 95 94 96 97 96 96 94 95 95 97 95 96 93 93 84 97 99 100 99
48 52 65 69 62 60 69 87 96 94 100 100 97 91 85 85 90 93 93 94 95 95 96 99 93 93 95 96 95 96 97 96 96 90 97 98 92 88 89 96 95 97 99
51 65 74 69 47 62 80 87 95 100 100 100 100 95 88 87 95 94 94 93 94 97 98 99 97 96 97 97 98 97 97 95 94 95 91 97 98 97 94 97 92 99 99
64 77 78 59 47 72 91 98 100 100 100 99 100 100 98 93 96 97 98 97 98 97 94 95 95 96 98 96 95 95 94 93 97 98 98 98 88 84 87 99 100 98 99
77 89 63 34 60 92 94 100 100 97 94 98 98 97 95 96 96 97 99 99 95 94 97 96 97 95 100 99 97 97 95 94 93 96 94 100 99 94 97 99 100 100 100
88 74 35 53 92 94 100 100 100 100 100 96 98 96 96 96 96 94 97 98 97 99 100 100 100 100 100 98 96 96 97 96 96 96 100 100 98 99 100 100 100 99 99
84 48 42 81 97 100 100 100 100 100 100 100 94 97 96 96 97 96 92 98 100 100 100 100 98 99 100 99 96 96 96 96 96 96 97 96 96 97 98 99 98 97 97
64 42 40 60 100 100 100 100 100 100 100 100 99 94 96 96 99 98 95 99 100 99 100 100 100 100 100 97 97 97 96 96 97 96 96 97 96 98 97 98 97 96 96
74 51 43 66 100 100 100 100 100 100 100 100 100 96 95 96 93 96 95 98 98 98 96 99 99 96 94 92 100 100 98 96 98 100 99 98 100 98 96 96 96 94 96
82 75 46 98 100 100 100 100 100 100 100 100 97 96 96 95 95 95 96 96 96 97 100 97 98 99 80 70 95 90 58 74 94 96 96 96 96 96 96 96 95 95 92
52 52 81 96 100 100 100 100 100 100 100 100 96 96 96 95 95 95 95 95 95 95 96 96 97 97 96 95 93 78 68 71 71 61 52 58 80 90 87 78 79 72 62
55 50 87 99 100 100 100 100 100 100 100 100 96 95 95 95 95 95 95 95 95 95 96 95 95 96 96 96 96 96 96 95 95 95 93 88 83 78 77 77 74 84 81
61 50 67 83 90 100 100 100 100 100 100 100 98 96 95 95 95 95 95 95 95 95 95 95 95 95 96 95 95 95 95 95 95 96 96 95 95 96 95 96 96 94 89
68 53 57 57 88 100 100 100 100 100 100 98 98 96 95 96 96 95 95 95 95 95 95 95 95 96 95 93 93 93 94 94 93 96 96 99 96 100 100 100 100 100 81
77 55 57 66 88 100 100 100 100 100 100 100 97 96 96 96 96 95 95 95 94 94 93 84 82 80 80 77 78 81 81 84 82 80 79 88 93 96 100 86 97 100 90

GFSGL_850_rhum_003.txt.gz
RH
46 56 61 60 55 44 41 50 56 51 50 51 48 52 54 56 60 60 60 62 64 64 64 64 63 63 63 62 64 70 76 71 59 54 51 46 45 60 71 83 97 92 97
52 58 60 56 42 51 55 58 57 58 55 56 57 57 57 57 57 58 59 59 59 60 61 61 63 63 62 60 63 70 72 71 61 54 52 49 47 50 52 72 82 51 53
52 56 56 54 59 66 63 60 60 58 57 57 57 58 57 57 57 59 61 63 65 66 68 70 72 71 70 68 65 68 73 71 65 60 54 50 48 48 54 70 87 81 20
49 50 58 64 64 62 63 65 63 62 60 58 57 56 58 60 61 61 62 67 72 77 82 88 87 86 84 87 89 86 76 74 73 67 61 58 55 50 48 63 82 84 47
56 63 76 71 66 67 65 64 65 63 59 56 54 56 59 62 60 62 71 80 86 87 93 96 92 93 95 90 97 99 100 93 82 76 70 68 66 61 52 59 93 99 64
76 82 70 68 67 63 64 65 61 56 52 53 56 59 61 62 65 74 85 98 97 100 96 96 99 98 94 91 88 90 93 100 100 100 92 78 73 67 59 57 82 88 100
78 74 69 65 64 65 63 60 54 52 54 57 60 62 68 77 84 91 91 100 99 98 99 97 94 97 96 92 89 92 88 83 83 85 99 98 86 72 64 59 73 87 100
79 66 60 59 62 64 62 53 51 54 58 62 65 73 82 91 93 91 100 100 100 100 100 100 98 93 91 93 96 95 93 87 85 83 82 87 92 95 99 90 76 94 94
56 56 57 60 67 59 52 53 57 61 63 67 76 92 99 100 96 88 93 97 100 100 100 100 97 96 96 99 97 95 95 95 96 91 88 88 84 68 86 97 98 100 98
57 58 62 63 58 53 56 60 61 62 67 84 99 100 100 100 82 86 98 97 97 96 93 92 91 92 92 96 96 95 96 92 88 91 95 84 92 67 68 94 97 100 97
55 64 63 58 54 60 61 60 60 69 88 90 90 90 91 86 90 96 94 95 94 94 92 93 96 96 95 94 92 96 96 89 90 96 95 89 80 74 60 81 97 99 100
62 64 60 59 65 63 60 61 70 81 84 90 90 87 83 85 88 90 96 96 96 95 93 94 94 96 96 95 96 96 97 97 96 96 96 92 92 87 86 91 98 98 100
64 63 64 72 71 62 62 71 77 76 90 92 92 89 88 83 87 94 96 97 95 96 95 95 96 95 94 93 92 96 96 97 97 94 97 93 85 85 79 88 88 94 90
67 70 77 78 69 67 74 74 75 89 98 99 93 93 89 89 93 94 95 94 95 94 96 96 95 95 96 96 98 98 98 96 96 94 92 94 87 90 85 81 89 95 99
74 80 85 80 77 80 83 80 87 96 99 99 99 94 95 93 98 97 96 96 95 96 96 96 95 96 94 98 96 98 98 94 95 94 95 96 97 98 99 98 98 100 99
66 95 91 74 82 87 83 83 91 96 90 92 97 98 100 97 96 96 96 96 96 95 95 94 98 96 95 97 98 96 93 93 92 93 95 98 98 98 98 99 99 100 100
73 83 70 85 90 88 88 92 100 97 95 96 98 98 96 96 97 97 96 97 96 94 97 96 96 94 95 97 97 98 98 96 94 96 97 98 99 97 77 93 99 98 99
78 75 88 90 96 97 99 100 94 100 93 94 95 96 95 95 96 98 96 96 96 93 94 94 95 95 95 95 96 96 96 96 96 96 97 98 100 98 92 98 97 98 96
81 86 65 61 100 99 97 96 98 100 100 95 99 92 95 95 96 96 96 99 96 98 96 95 95 94 95 96 98 96 96 97 96 95 96 96 96 98 96 98 99 100 96
83 85 79 97 100 95 95 94 97 100 100 95 99 95 94 95 95 94 95 94 99 99 95 96 95 95 95 94 95 94 95 96 95 96 96 96 98 97 97 96 96 98 99
90 94 94 100 100 98 96 94 98 100 100 98 97 96 95 96 96 96 95 94 95 95 96 97 97 98 96 96 96 98 96 96 96 94 94 97 91 94 96 96 96 94 94
98 100 100 100 100 100 100 99 99 95 99 97 99 96 95 95 96 96 95 95 96 96 95 95 96 97 96 98 98 98 98 99 98 96 99 98 98 96 96 96 96 95 95
100 100 100 100 100 100 99 97 100 100 97 95 98 95 95 95 95 95 96 95 96 96 96 95 95 95 97 96 96 96 96 95 97 98 97 97 96 95 95 96 96 96 96
100 100 100 100 100 100 100 98 94 100 100 96 100 98 95 96 95 95 96 96 96 95 95 94 96 96 96 96 96 96 96 96 96 96 96 96 96 97 100 97 94 94 96
95 100 100 100 100 100 100 100 99 98 100 100 100 100 96 96 96 96 96 96 95 95 93 93 95 95 95 95 95 96 96 95 95 96 95 96 96 96 95 96 96 96 96
97 100 100 100 100 100 100 100 100 100 98 100 100 98 96 96 96 96 96 95 88 69 57 57 60 65 68 68 76 84 82 76 72 84 100 100 100 100 100 100 99 100 97

GFSGL_850_rhum_006.txt.gz
RH
47 49 51 48 60 63 57 56 85 82 86 92 69 41 36 40 43 51 56 58 61 59 59 61 62 61 60 59 66 68 69 68 72 72 73 70 61 54 40 49 60 60 63
48 49 51 58 61 59 56 61 79 89 86 64 51 55 54 54 56 58 58 58 60 61 61 63 63 65 67 68 68 68 69 68 71 74 79 79 71 60 52 38 46 63 67
50 53 57 59 60 57 62 72 86 79 64 59 61 59 57 57 57 58 59 60 62 64 64 65 68 70 72 73 74 76 76 75 74 75 77 77 74 66 58 50 38 49 66
51 52 56 57 58 67 72 79 83 65 64 64 63 59 54 52 57 60 62 62 63 66 70 75 80 87 92 93 91 89 91 95 97 98 90 82 80 71 63 56 52 41 45
50 50 54 64 74 87 86 77 67 65 64 62 58 53 55 59 62 62 61 62 65 68 72 76 78 82 85 88 92 86 91 97 97 98 95 98 88 78 69 63 60 57 54
54 64 82 97 91 91 78 66 65 66 63 54 54 56 61 63 65 67 70 78 83 88 92 90 87 91 92 92 88 86 85 88 99 100 96 97 99 97 79 72 69 64 64
76 94 97 96 89 72 65 66 65 61 53 54 56 62 65 68 76 83 87 89 91 88 86 91 95 95 94 94 92 89 88 86 87 87 93 96 99 99 95 94 83 76 78
96 94 92 78 66 68 64 66 56 53 57 60 63 67 71 77 82 84 80 89 94 92 91 89 93 91 90 93 95 96 94 94 92 89 87 79 72 82 82 99 99 97 91
81 62 59 64 61 64 63 54 54 59 61 63 68 72 77 85 87 83 84 93 94 94 90 92 96 97 90 92 97 97 96 91 89 95 99 92 85 80 74 72 97 99 99
61 61 58 59 64 59 55 57 59 62 62 67 70 92 90 85 83 83 92 96 96 98 92 92 87 86 91 97 97 97 97 91 90 85 82 87 92 91 87 99 84 97 97
54 52 55 64 58 58 62 64 62 62 68 77 93 85 81 85 87 92 94 96 96 96 96 97 93 95 95 95 98 97 93 88 92 91 90 92 93 85 82 77 87 93 82
49 56 64 62 64 69 69 63 64 72 77 86 80 84 84 83 88 94 96 95 96 96 96 96 95 96 96 96 97 95 96 99 98 97 97 95 92 92 81 78 88 75 72
58 64 63 59 65 73 66 70 76 79 86 82 94 92 88 90 94 95 93 95 96 95 96 97 96 95 93 94 92 94 96 96 95 97 97 96 88 81 95 96 91 92 94
51 56 53 71 80 75 76 84 82 85 88 93 93 93 94 95 90 89 93 98 96 95 96 95 96 97 97 97 96 97 96 98 96 95 96 87 84 96 96 98 95 98 98
49 55 76 82 72 74 88 86 86 90 92 95 96 97 96 92 92 98 96 97 96 96 95 94 94 94 92 94 97 96 91 97 97 96 94 90 93 94 97 98 96 99 99
54 63 71 70 79 92 91 91 88 82 87 91 96 96 95 96 96 97 96 97 96 96 94 95 95 94 96 94 97 98 97 97 96 92 91 96 98 98 97 99 98 99 98
58 69 74 86 90 92 94 87 86 84 82 86 96 96 96 97 97 95 96 95 96 94 95 94 94 95 94 96 96 96 97 97 97 93 88 98 97 100 99 100 99 97 97
64 75 95 85 70 92 89 91 89 95 87 90 95 96 96 95 98 96 95 95 91 90 97 98 96 92 97 95 96 96 97 98 97 96 97 98 95 86 92 98 100 97 97
85 91 88 86 83 94 96 87 93 90 88 94 92 88 95 95 96 96 96 95 95 96 99 93 98 96 95 97 97 96 94 93 95 96 96 96 97 99 99 99 99 95 96
96 97 95 94 94 93 87 87 94 87 92 95 96 94 94 94 94 95 95 96 95 95 97 98 98 98 97 96 94 92 93 94 96 95 94 95 95 96 97 97 99 99 100
98 97 100 96 94 91 93 85 96 86 94 95 96 95 96 96 96 96 96 95 95 95 96 95 94 99 98 97 98 97 94 93 91 90 93 96 96 95 95 96 96 96 96
100 100 100 96 98 91 90 97 93 90 92 96 97 95 96 95 96 96 96 95 96 96 96 96 95 94 95 96 99 97 97 98 95 95 95 95 95 96 96 95 96 96 96
100 100 100 97 97 94 92 90 92 88 92 96 97 95 95 95 96 96 96 96 96 96 96 95 95 95 96 96 95 95 99 98 98 98 99 94 94 95 95 95 95 95 96
97 96 99 100 97 95 92 92 94 92 97 95 96 96 96 96 96 96 96 96 96 96 96 95 95 95 96 96 96 96 94 96 96 96 96 96 95 93 93 94 96 96 95
97 96 100 100 98 96 94 95 94 90 95 94 97 96 96 96 96 96 96 96 96 94 75 62 64 67 72 85 94 95 98 95 92 96 96 95 95 96 96 96 95 95 95
97 98 98 100 100 98 97 96 94 94 95 97 97 99 96 96 96 96 96 94 68 43 39 35 35 37 37 42 54 65 65 69 75 93 93 96 98 99 97 94 94 97 97

GFSGL_850_rhum_009.txt.gz
RH
50 45 44 47 50 54 61 58 57 70 95 84 93 82 74 61 55 49 55 56 58 58 59 61 62 62 64 66 70 71 71 71 76 77 75 72 68 66 60 54 58 54 44
46 46 49 51 54 61 62 60 56 59 66 84 79 72 61 58 60 60 60 59 59 60 60 61 62 63 64 66 68 71 74 74 77 78 79 76 74 74 71 65 62 62 55
48 48 51 54 57 58 58 57 64 70 76 63 66 61 62 64 63 57 52 53 57 61 62 64 64 65 66 68 71 77 81 83 85 87 95 96 95 84 82 76 67 63 58
49 51 51 52 53 58 60 69 74 77 70 67 64 64 64 61 53 57 59 62 64 64 67 71 73 74 76 77 81 82 84 91 93 91 88 90 94 93 86 84 75 70 62
50 51 51 56 60 68 77 84 86 76 66 66 67 65 57 54 57 62 69 68 68 67 67 67 68 70 71 73 75 76 87 98 100 98 96 98 92 97 94 94 92 76 69
59 58 58 72 80 81 96 96 91 68 66 67 63 53 57 58 64 70 71 75 79 84 84 82 78 72 70 71 74 77 84 95 100 100 100 100 97 97 99 97 98 96 82
98 99 94 89 95 85 87 78 70 65 67 54 53 56 60 68 71 72 76 75 79 84 84 84 87 85 84 86 80 80 84 87 94 96 100 100 100 96 90 87 79 98 98
100 96 84 79 81 66 67 64 65 62 55 55 54 63 68 71 71 75 78 87 90 87 84 83 82 80 78 78 92 92 90 88 86 88 90 90 92 93 90 95 83 75 97
75 76 63 62 63 62 60 62 57 56 55 61 64 66 70 78 82 79 83 93 92 92 90 91 89 98 85 83 98 98 94 91 83 77 80 83 89 94 100 98 97 100 96
64 63 61 57 52 61 60 57 59 63 64 62 69 81 92 79 77 82 89 98 94 92 87 87 87 89 90 90 97 98 98 92 84 85 84 83 84 87 93 100 97 98 98
64 58 56 56 58 60 60 60 66 66 67 80 84 82 80 80 82 89 100 97 97 96 95 96 94 96 96 96 97 96 96 95 98 100 96 95 94 88 89 87 91 98 99
58 56 53 56 57 55 64 70 66 71 82 84 83 79 75 80 90 92 96 96 97 97 96 97 97 97 97 98 98 95 96 98 99 98 100 100 96 94 89 84 85 90 92
56 48 45 49 54 67 79 66 75 86 88 92 87 81 85 88 88 89 88 89 94 97 97 97 99 97 95 94 90 90 96 98 97 97 94 96 90 83 90 96 96 96 96
44 46 54 59 71 76 62 83 90 94 95 88 90 94 95 95 85 87 92 95 98 96 96 96 88 94 92 96 92 92 96 97 99 97 96 95 96 95 96 94 97 95 97
61 55 58 67 70 66 74 91 92 85 86 92 94 97 98 92 91 97 98 97 97 96 87 81 88 89 90 95 98 90 91 88 97 99 98 97 97 95 96 97 97 98 98
51 53 64 70 71 69 69 84 81 92 91 83 93 98 94 96 98 95 95 97 95 95 93 90 92 96 96 96 97 100 99 96 96 90 94 96 96 95 94 91 99 97 100
55 63 71 79 88 73 83 96 89 93 87 84 94 95 96 97 97 94 96 98 94 93 89 98 94 96 97 100 96 98 100 100 94 94 95 97 94 96 97 97 98 98 96
74 91 95 93 94 84 95 96 92 99 84 88 99 94 95 96 95 95 96 96 94 89 96 96 98 100 96 97 98 95 96 98 100 100 99 96 97 97 96 95 97 92 96
95 100 100 99 96 94 96 95 87 94 84 96 93 92 95 95 95 95 96 94 96 95 92 97 100 99 100 98 98 98 97 94 95 97 97 98 99 96 100 99 83 95 100
97 100 99 98 97 96 95 92 90 95 84 99 96 94 94 94 93 94 95 96 95 96 94 94 95 90 92 99 97 96 91 89 94 94 94 96 96 96 95 96 95 97 100
96 100 100 100 98 100 95 93 97 91 88 98 97 96 96 95 95 95 95 95 96 95 98 97 96 92 88 90 94 99 96 96 93 96 97 96 96 96 98 97 92 94 95
95 100 100 100 100 97 92 98 92 88 91 93 96 96 96 95 95 95 96 96 96 97 95 99 98 100 97 93 92 92 100 98 94 94 96 98 97 96 96 96 97 97 98
93 98 100 98 99 98 96 95 94 94 95 93 95 96 95 96 96 96 96 96 96 96 97 98 97 94 95 97 96 94 92 98 100 96 92 94 95 95 96 95 95 96 95
94 99 99 99 99 97 95 95 99 94 99 95 93 96 95 96 96 96 96 96 96 93 80 71 75 88 95 94 94 95 96 98 95 97 96 94 94 95 95 95 96 96 95
99 100 100 99 98 99 100 96 97 98 98 98 95 96 96 96 96 96 96 96 79 45 40 40 42 50 58 60 63 76 90 94 97 96 92 94 95 95 96 96 95 95 96
99 100 100 98 99 100 98 96 95 98 93 99 95 95 94 96 96 96 89 47 31 22 18 16 16 15 15 16 22 36 48 58 70 82 74 75 83 92 96 96 97 96 96

GFSGL_850_rhum_015.txt.gz
RH
58 69 74 53 54 55 54 53 53 60 66 67 73 83 91 60 59 62 62 63 65 66 66 61 49 44 39 42 48 54 60 66 72 77 79 73 66 61 59 47 45 45 34
74 82 77 66 58 60 62 62 61 60 81 92 85 63 53 59 63 65 68 66 60 57 51 44 46 45 47 54 62 66 65 66 72 80 81 81 79 74 76 76 73 71 68
80 75 74 71 64 66 64 63 63 66 80 78 65 63 67 67 67 66 65 63 54 49 55 56 56 65 68 69 71 74 74 74 76 82 90 92 90 80 75 76 72 55 44
74 75 68 83 66 64 66 72 79 86 94 91 96 86 68 66 66 66 55 49 50 54 57 64 69 71 71 70 69 67 68 72 74 83 84 96 96 91 85 81 78 71 61
72 62 90 95 82 81 90 97 98 98 92 72 62 68 68 66 58 52 52 53 61 65 66 64 66 62 59 66 74 74 93 100 100 100 100 100 100 96 93 85 84 75 74
65 70 100 100 99 98 97 90 81 84 90 82 73 68 59 54 54 56 63 65 64 64 63 62 62 69 74 79 81 83 89 99 99 100 97 97 99 96 96 94 90 86 87
71 70 81 87 82 91 93 93 86 83 71 63 59 57 53 55 59 60 64 70 71 69 71 70 78 83 84 81 77 78 80 80 86 100 100 99 94 92 94 95 94 90 89
93 98 95 91 95 83 66 67 63 61 61 60 55 54 59 57 61 62 59 61 69 71 76 83 85 83 83 87 100 100 92 92 92 85 93 91 86 92 94 95 96 96 89
99 96 89 86 86 80 72 62 58 58 55 54 59 58 63 56 54 51 66 71 79 82 83 83 87 87 86 92 100 99 96 92 90 90 91 89 88 89 92 98 99 100 99
84 81 73 69 63 59 56 52 53 58 62 59 56 62 60 56 58 71 75 84 97 92 83 84 88 94 94 97 97 97 97 87 96 97 93 94 95 94 98 98 98 100 100
83 75 63 54 45 44 48 57 62 63 61 60 58 59 61 67 71 74 76 100 100 94 90 92 95 96 96 96 96 94 96 97 96 98 97 95 93 94 94 93 95 99 100
96 64 58 57 51 51 57 63 65 62 60 59 63 61 60 70 74 74 85 97 96 98 95 98 91 85 88 85 84 90 93 94 98 98 97 96 96 94 92 87 91 96 96
71 69 71 55 50 57 67 68 64 64 70 71 80 74 73 75 76 80 87 90 92 95 97 96 98 88 86 95 96 96 96 96 97 97 98 97 96 95 96 97 95 97 96
72 67 50 51 58 69 74 75 70 76 79 86 88 80 95 85 81 88 96 92 94 95 96 95 95 94 96 97 96 96 97 97 97 98 97 97 97 97 96 96 96 96 97
53 53 53 61 72 78 82 83 85 87 88 92 86 95 100 89 94 98 96 95 97 96 98 95 83 87 88 89 93 97 96 95 96 100 98 97 97 97 96 97 96 97 96
59 59 66 81 90 90 88 87 89 86 88 91 83 95 90 96 100 95 95 96 96 95 96 93 90 96 95 95 94 93 94 89 97 100 100 96 96 97 95 93 95 97 93
67 63 73 90 92 95 92 92 92 88 87 87 82 89 88 100 98 95 95 96 96 95 95 94 96 99 95 95 94 96 97 98 99 99 100 99 97 97 97 97 99 96 96
79 72 78 90 96 96 97 99 97 95 97 86 83 89 90 95 95 95 95 96 96 95 95 95 97 100 96 96 95 93 92 94 98 99 94 100 96 100 100 100 99 98 99
93 83 87 95 92 93 96 99 95 94 94 89 85 85 92 95 96 96 96 95 95 95 95 96 96 98 99 96 94 95 94 99 99 95 93 94 90 88 99 100 100 100 100
96 92 100 100 99 99 98 97 95 95 97 93 91 92 92 94 94 94 95 96 96 95 95 96 96 97 98 97 94 93 91 90 89 90 93 94 97 100 92 92 91 97 100
95 95 100 100 100 96 93 94 95 98 98 94 94 93 96 97 96 95 95 95 95 95 95 96 96 96 96 97 96 95 93 91 91 92 91 93 95 95 96 94 92 92 95
99 98 98 97 95 95 95 98 100 99 100 97 94 94 96 97 96 96 96 96 96 95 96 95 97 98 98 97 96 95 94 94 94 94 93 93 92 95 95 93 94 97 98
97 100 100 99 97 96 95 99 97 96 96 100 98 96 96 96 96 96 96 96 96 95 84 64 76 81 83 88 88 83 83 90 96 97 92 90 90 91 94 92 95 95 96
92 100 100 100 97 97 96 96 95 96 97 97 98 96 96 96 96 97 96 95 59 25 20 20 26 38 49 56 60 69 76 76 73 77 90 88 86 90 90 90 92 94 94
98 100 100 100 97 96 94 97 92 92 93 96 96 93 90 96 97 97 92 50 22 18 16 16 16 16 18 22 31 42 56 59 55 51 50 68 84 88 89 90 92 94 94
100 100 100 99 97 97 98 99 96 88 90 92 92 70 74 64 63 84 58 26 20 18 15 14 14 14 14 13 14 15 17 18 25 29 34 38 40 59 83 88 89 87 88

GFSGL_850_rhum_021.txt.gz
RH
73 73 75 78 72 62 55 65 68 74 91 100 100 97 100 99 97 97 93 90 84 78 72 64 61 56 52 63 69 73 71 71 70 60 65 70 79 80 77 77 79 81 77
74 81 82 74 64 61 63 78 78 99 100 96 99 98 98 96 96 88 84 75 68 65 62 52 45 48 60 76 79 84 85 83 80 75 70 73 78 82 84 84 81 74 74
87 87 79 69 67 68 83 83 81 91 96 98 98 91 75 79 79 76 69 66 61 54 47 45 46 52 68 85 84 83 81 79 79 78 72 73 75 76 79 84 87 85 80
88 84 80 77 80 93 91 96 94 98 96 90 88 80 73 80 82 81 70 56 47 44 43 46 52 60 76 84 84 85 86 87 86 86 83 81 85 86 91 90 89 94 96
88 80 92 98 98 93 88 95 91 84 81 78 96 95 93 72 64 60 52 50 49 44 40 42 48 44 43 56 85 95 97 100 100 100 100 93 88 90 93 93 91 88 93
85 90 99 99 99 99 97 70 76 78 74 70 68 66 64 59 56 56 54 52 44 44 71 73 64 64 80 73 75 76 88 100 100 100 100 95 91 89 91 92 93 94 93
84 84 96 83 78 80 81 78 72 66 65 64 62 59 56 56 56 54 51 48 58 78 82 88 99 100 96 100 93 88 96 100 100 100 100 100 99 95 96 97 97 96 95
80 76 79 78 75 69 61 52 47 49 54 58 59 60 58 56 56 53 52 55 88 96 84 100 100 96 89 91 99 100 100 100 98 98 100 100 100 100 99 99 99 99 98
92 74 87 77 70 68 68 62 50 53 57 60 61 63 63 60 63 61 63 98 100 84 99 100 100 99 95 97 97 94 99 100 100 94 89 98 97 93 95 99 96 100 97
97 92 81 75 74 75 59 52 57 61 63 66 67 68 72 72 66 64 75 100 100 100 100 100 100 97 97 95 96 95 100 100 100 100 100 100 99 95 93 98 97 99 96
93 77 78 77 76 54 54 59 65 71 74 77 78 78 76 71 64 68 75 100 100 99 100 100 96 97 96 97 94 92 99 96 96 100 100 100 95 95 98 95 93 91 99
74 78 80 73 55 56 61 72 81 83 83 82 78 85 98 81 74 72 88 95 100 98 98 94 95 95 93 90 93 100 97 96 97 97 98 100 100 99 99 99 98 95 93
80 78 65 59 60 61 71 85 91 88 91 97 100 100 100 100 100 92 95 100 93 97 95 96 95 95 93 90 97 96 94 96 95 97 100 100 100 100 98 95 98 99 99
73 61 62 69 70 69 78 91 94 100 100 100 100 100 100 100 100 100 100 100 100 97 95 96 96 95 96 95 91 95 96 96 97 97 99 99 100 98 100 99 96 96 96
71 66 74 82 81 78 82 89 91 98 99 100 100 100 100 100 100 98 97 100 98 95 96 96 95 94 90 91 91 92 96 96 96 96 97 99 100 100 94 92 100 96 96
66 74 85 91 86 84 84 82 83 89 89 89 84 90 100 100 100 100 95 96 95 95 96 95 95 95 92 94 98 94 95 94 96 96 98 98 99 100 100 95 93 92 100
72 86 97 95 88 84 86 86 87 79 75 78 79 79 83 100 100 99 94 96 96 96 96 95 96 95 95 97 95 96 96 98 97 96 97 96 97 100 100 100 100 100 100
94 100 99 93 90 88 90 89 89 83 82 76 78 81 77 86 94 94 94 96 95 96 95 96 96 95 95 97 96 94 94 93 92 94 95 97 95 96 100 98 98 100 100
99 94 98 95 91 91 92 91 90 88 86 78 79 73 71 85 96 96 96 95 95 96 96 96 96 96 96 96 96 97 95 94 94 92 95 97 98 98 97 96 96 100 100
74 94 100 100 95 94 94 92 88 82 75 79 84 83 78 88 91 93 95 96 96 96 96 96 96 93 86 84 82 86 93 93 93 92 94 96 95 97 99 97 95 96 98
100 100 100 100 100 100 96 94 88 81 74 81 82 81 80 93 96 97 97 96 96 96 92 78 65 69 69 71 75 71 68 85 94 93 94 94 94 97 99 100 97 96 97
97 91 96 99 100 97 95 93 89 79 67 72 69 71 74 92 95 97 97 95 83 43 24 26 36 45 50 56 64 65 58 53 71 89 93 95 94 95 98 98 97 96 94
99 97 100 100 98 96 96 95 92 88 71 68 62 55 66 90 94 96 90 55 29 22 21 22 24 28 39 49 49 50 49 43 50 62 81 92 90 91 92 90 89 90 91
100 100 100 100 100 98 97 97 95 92 86 70 63 55 52 74 90 95 92 52 26 21 20 19 20 20 21 23 26 30 31 32 34 35 35 48 71 82 85 85 89 89 89
100 100 99 98 97 98 97 99 95 94 93 76 67 52 38 36 30 69 94 96 81 20 17 17 18 18 18 20 19 18 18 19 18 21 20 19 23 32 48 61 68 77 81
98 99 99 97 98 97 97 97 96 94 95 87 67 43 24 24 26 35 40 39 36 21 15 14 15 16 17 17 17 18 18 18 18 18 18 19 18 18 21 30 42 53 62

GFSGL_850_rhum_027.txt.gz
RH
57 55 58 64 69 71 71 74 84 91 96 98 88 85 90 96 100 100 99 98 97 91 93 95 92 85 73 63 62 70 82 83 76 63 52 50 48 49 50 52 56 60 64
47 50 58 66 67 70 80 79 94 98 99 99 95 98 99 97 86 83 83 80 77 78 82 76 63 54 57 58 58 58 56 54 54 54 51 49 50 50 52 54 58 56 57
58 62 64 66 81 87 93 96 99 99 98 97 99 98 94 83 78 78 73 71 66 63 62 60 60 63 65 64 64 62 59 56 54 53 51 49 49 49 51 52 55 57 59
64 64 64 79 92 97 92 89 99 98 98 94 88 82 70 63 62 60 60 73 72 66 66 67 69 72 71 69 67 67 64 61 58 58 57 54 51 51 53 55 56 56 58
67 65 66 83 96 92 96 94 92 86 73 67 64 62 60 60 56 59 65 76 76 71 69 68 67 71 75 74 77 78 78 75 69 65 61 59 57 63 63 63 66 68 69
64 63 69 81 81 82 84 81 76 75 76 64 59 60 61 59 65 70 73 73 77 81 77 72 70 72 70 72 77 84 94 96 96 93 91 86 83 90 90 89 94 91 91
64 61 71 76 77 80 77 76 74 70 59 60 60 61 64 66 72 78 77 76 85 90 86 84 80 69 71 81 98 91 93 93 99 100 100 98 94 90 91 93 95 94 92
53 61 66 80 84 78 70 68 62 57 61 61 63 67 70 71 90 88 83 88 97 94 93 92 87 86 92 92 96 96 99 99 100 97 96 99 98 96 95 95 97 95 92
51 58 69 80 70 66 62 60 60 61 63 62 67 87 93 96 95 92 95 100 100 100 96 97 97 97 95 97 96 96 99 95 94 96 96 92 84 79 78 80 89 94 97
48 55 67 69 70 64 60 61 63 61 61 75 96 97 100 100 98 92 90 97 97 97 99 98 91 96 88 92 97 96 93 92 97 95 92 97 100 96 93 96 89 97 93
52 64 71 72 68 62 62 62 61 61 74 95 84 89 99 100 94 95 98 99 97 98 95 91 90 97 97 93 93 94 97 96 93 98 95 95 94 94 94 95 95 94 92
69 72 75 73 69 63 65 63 63 68 84 92 90 91 91 93 94 98 97 90 90 97 98 93 97 90 87 92 94 95 97 94 94 97 95 95 96 97 96 96 97 96 93
83 78 82 81 68 63 64 64 68 76 90 96 96 94 92 98 95 98 94 90 96 94 95 96 92 96 94 95 94 94 95 95 96 94 99 98 99 93 91 91 88 91 89
77 84 91 84 72 77 72 69 80 90 99 97 98 96 95 95 95 100 96 97 98 99 95 94 95 96 95 94 95 94 94 95 94 95 94 94 94 94 94 94 98 97 99
93 97 94 78 77 92 88 85 90 95 96 96 98 99 100 100 100 100 99 99 100 98 94 96 94 97 97 95 94 94 95 94 95 96 95 95 96 99 96 96 90 89 100
97 94 89 87 96 97 96 92 96 91 93 90 90 93 90 90 100 100 100 100 99 95 95 95 95 96 97 95 95 95 95 96 98 96 95 97 100 100 95 97 97 96 91
95 95 96 96 100 96 98 100 100 98 95 92 96 95 87 86 99 100 100 98 99 94 99 100 98 97 97 97 95 95 96 94 94 98 95 97 99 100 97 98 95 97 96
88 88 99 100 99 99 100 100 99 100 100 100 98 96 95 87 90 99 100 100 100 98 99 100 98 100 98 100 100 100 96 94 95 95 93 96 98 97 93 99 100 99 99
100 100 99 99 100 100 100 100 99 99 95 96 97 98 99 93 96 97 96 100 100 100 100 100 100 99 100 100 100 100 98 96 97 99 97 95 96 95 96 98 99 98 94
100 100 100 100 100 99 99 100 100 100 96 100 98 100 100 95 99 92 100 100 100 100 100 100 100 100 100 100 100 100 100 100 100 100 100 98 95 95 95 95 95 95 97
100 99 100 100 100 99 99 100 100 100 98 99 100 99 92 76 94 94 100 100 100 100 99 100 100 100 100 100 100 100 100 100 100 100 100 100 96 96 95 96 95 93 95
100 100 100 100 100 99 100 100 100 100 97 94 100 100 93 97 98 100 100 100 100 73 28 50 98 84 62 74 74 88 96 77 79 94 98 100 100 100 96 95 97 95 96
100 100 100 100 100 100 100 97 98 96 97 98 99 98 100 98 100 100 100 100 100 62 19 18 21 21 21 22 25 26 23 22 22 24 54 100 100 100 100 98 96 100 98
100 100 99 100 98 95 94 94 95 98 96 98 95 98 100 100 100 100 100 100 100 86 23 16 17 18 18 19 20 20 20 20 18 18 25 89 94 73 100 100 99 99 100
100 100 100 99 94 94 94 95 94 95 94 94 95 97 99 100 100 100 100 100 97 67 31 21 17 18 18 20 21 22 22 20 18 17 17 43 26 29 56 96 58 100 100
99 98 99 97 96 94 95 97 95 96 94 95 97 99 100 100 100 100 100 96 83 41 27 22 21 21 21 22 24 25 25 22 19 18 16 17 16 17 17 44 26 98 96

GFSGL_850_rhum_030.txt.gz
RH
46 48 48 54 61 66 69 74 79 77 70 87 95 89 89 94 93 96 94 84 86 83 83 83 86 76 75 68 63 61 71 83 98 84 69 68 64 63 67 73 81 69 57
49 56 60 63 64 72 77 83 76 93 95 92 87 88 94 89 77 78 78 79 68 78 83 72 65 63 63 61 61 65 65 64 63 61 60 59 56 54 52 54 55 56 59
56 60 62 63 73 76 72 93 75 81 89 85 81 78 84 78 69 64 61 63 67 71 60 56 66 66 66 67 69 72 71 68 64 64 61 59 56 54 53 50 52 54 55
57 62 63 63 76 69 83 83 82 80 82 80 74 70 68 62 61 60 60 64 64 63 61 55 68 68 68 69 75 74 73 77 75 71 69 68 65 62 58 56 62 65 61
56 62 62 64 79 69 74 82 83 79 78 74 69 61 58 59 60 60 62 66 70 67 62 58 73 76 74 74 76 82 80 74 73 78 86 87 85 81 78 83 74 69 66
51 55 59 62 71 79 81 82 80 76 76 66 58 60 61 64 67 66 70 74 75 75 74 67 89 92 81 82 96 95 82 87 91 92 84 84 79 76 74 82 79 73 70
47 48 52 71 75 66 72 78 76 72 63 58 61 62 67 71 76 81 83 90 88 85 90 94 91 91 89 93 94 94 92 91 82 83 90 85 87 77 80 82 80 81 82
48 45 47 64 66 72 83 72 74 62 59 61 61 66 69 68 74 86 91 86 81 82 92 89 86 81 81 79 81 84 81 93 89 94 96 95 99 96 98 97 98 97 97
56 50 53 61 67 71 69 70 67 60 61 60 65 71 69 73 76 89 95 89 82 80 78 84 92 84 83 88 92 89 84 82 85 87 93 97 98 96 85 92 92 94 92
55 63 70 90 81 74 84 85 60 61 62 65 69 81 78 79 87 90 90 96 98 95 83 81 81 84 96 97 96 98 96 92 93 85 83 81 79 79 84 94 94 98 97
52 94 74 86 94 77 88 65 61 65 65 73 78 77 79 86 89 88 94 97 98 95 86 90 86 95 97 96 96 95 93 95 94 93 88 90 92 93 90 90 93 96 96
67 78 85 90 87 84 75 66 65 66 72 79 80 79 84 89 92 90 98 99 97 86 94 95 96 91 94 95 95 95 96 95 93 94 95 96 98 96 97 96 95 94 93
76 82 88 94 88 90 88 71 69 74 82 82 86 89 92 92 86 96 91 89 90 96 94 96 96 96 96 95 96 95 95 96 96 97 96 96 96 94 89 90 92 95 96
83 98 88 85 89 84 77 74 80 84 80 85 96 92 86 77 83 84 76 94 96 98 93 94 96 97 95 96 96 95 96 96 95 96 96 96 97 97 96 98 95 86 86
81 94 89 92 99 92 86 80 90 90 90 94 94 88 92 88 89 98 100 99 100 100 93 96 96 93 94 94 94 95 97 98 95 94 96 97 94 97 94 90 97 96 87
94 93 95 95 95 88 86 88 91 93 92 94 90 90 94 93 93 98 100 100 100 96 95 99 96 95 95 95 96 94 95 97 97 97 96 96 95 98 95 89 90 94 96
99 92 94 93 90 91 92 97 96 96 94 91 92 97 98 96 94 100 100 100 99 98 98 97 96 96 96 96 96 96 96 97 98 95 97 97 96 93 97 93 94 96 91
100 92 99 100 100 99 100 99 99 96 92 92 91 98 100 99 83 91 99 98 94 95 99 100 97 97 98 98 97 100 97 100 94 93 95 96 96 97 96 92 91 92 91
100 100 100 100 100 100 100 100 96 97 94 91 91 96 99 92 73 98 94 94 96 97 99 98 98 98 99 99 100 96 100 100 99 94 94 96 98 97 95 95 95 96 95
96 100 100 100 100 100 96 95 96 97 95 91 91 92 94 88 81 94 95 95 96 98 77 92 100 95 94 90 93 95 95 95 94 92 95 96 97 98 97 95 94 96 96
97 99 100 100 100 99 97 97 96 97 96 94 92 92 96 92 93 93 92 95 100 90 46 39 82 69 52 56 63 65 62 43 48 49 79 95 98 96 98 98 94 96 95
98 100 100 100 100 99 94 94 94 92 91 91 92 93 92 92 99 95 94 100 100 96 43 22 23 24 24 27 30 28 23 21 21 23 54 80 96 95 97 97 95 95 96
100 100 100 100 96 96 94 92 90 90 90 93 94 93 94 94 95 93 96 98 100 99 58 19 18 18 18 19 21 21 21 20 19 19 39 58 78 71 93 96 100 99 93
100 100 100 100 94 94 89 90 95 91 90 89 90 91 93 95 95 94 94 97 93 78 62 32 20 18 19 20 22 23 24 22 19 18 26 37 51 44 61 62 94 100 90
94 97 99 95 94 91 91 91 89 87 92 89 92 90 97 95 98 98 96 100 92 64 37 26 22 22 21 22 24 26 26 24 20 18 18 18 22 22 30 40 48 77 69
91 92 94 95 94 90 90 90 90 89 89 91 90 95 94 95 97 100 95 84 72 53 40 36 30 28 26 25 26 28 29 25 20 18 18 16 15 15 16 17 22 26 35

GFSGL_850_rhum_033.txt.gz
RH
51 46 43 40 59 63 64 66 69 60 74 84 84 88 91 89 84 84 92 85 84 83 82 91 88 78 70 65 66 67 65 69 77 74 73 67 62 62 60 74 73 81 92
48 45 50 59 61 64 65 71 63 77 71 82 92 88 81 79 80 77 68 66 67 66 72 74 74 64 48 50 67 69 68 68 72 76 73 72 65 60 58 56 55 58 68
50 50 54 61 64 63 66 68 52 69 75 77 82 79 75 69 63 60 60 62 63 67 68 67 64 60 49 44 66 68 68 72 72 74 77 75 72 66 57 54 47 45 48
50 49 45 56 63 62 70 62 53 70 80 80 80 79 64 60 61 63 64 64 64 66 69 72 70 64 59 70 82 82 82 78 77 68 61 60 60 63 66 66 65 71 70
50 48 48 51 55 62 73 64 62 65 79 80 80 69 62 62 64 67 68 69 68 72 74 76 71 70 85 92 98 94 93 95 88 83 80 78 77 67 60 69 81 80 77
55 54 50 48 58 66 71 54 60 75 79 75 68 61 61 63 66 70 71 66 73 82 78 66 60 74 91 97 99 98 96 96 96 97 96 93 75 72 76 80 77 76 72
62 64 62 64 63 86 76 83 69 74 74 67 62 61 63 65 71 72 69 69 80 82 74 70 69 74 82 85 84 80 80 86 88 93 96 80 86 84 93 92 87 80 78
48 51 62 70 83 90 97 81 76 76 72 61 62 63 66 69 77 72 75 83 80 81 80 85 78 76 88 84 87 84 80 78 83 89 89 85 93 93 97 94 92 94 95
44 47 55 60 84 98 98 95 94 90 59 63 65 67 71 76 70 74 80 82 90 89 88 88 80 86 81 94 92 91 91 83 85 89 93 95 89 80 95 96 97 92 96
48 63 68 68 69 93 90 82 70 61 65 68 71 73 76 72 75 87 89 91 92 91 89 85 83 87 94 96 97 98 95 76 79 77 74 74 77 82 80 84 90 99 98
51 56 54 63 73 88 96 80 74 68 67 68 71 75 74 71 84 95 93 99 97 97 92 85 85 92 92 92 96 97 96 96 96 97 92 92 96 96 96 97 97 98 96
58 61 53 86 95 92 93 93 89 70 70 73 77 71 74 80 74 73 76 81 84 98 94 90 92 97 98 96 94 96 96 95 95 96 96 96 96 97 96 95 93 92 95
64 61 67 97 92 97 95 85 76 74 73 80 75 78 87 81 80 79 66 77 92 94 94 98 98 96 94 95 96 96 96 97 98 97 98 97 96 97 97 97 100 97 97
68 70 79 84 95 97 88 86 84 74 85 83 86 89 85 86 89 84 82 93 91 92 92 96 96 96 96 97 95 95 96 95 95 95 95 94 96 96 97 95 96 99 96
84 75 98 100 99 99 98 90 86 94 90 88 89 90 91 90 93 97 100 97 97 97 96 94 93 93 94 95 95 95 96 94 94 96 95 94 94 93 94 95 95 90 96
95 88 98 99 100 98 92 89 92 94 92 91 90 90 95 97 92 99 100 100 100 95 96 94 95 95 96 96 95 95 95 93 95 96 96 96 93 91 96 93 90 92 89
100 98 96 97 100 100 100 99 97 93 92 88 90 89 94 95 94 100 100 98 90 99 93 95 96 96 97 96 95 96 98 98 96 96 96 96 97 97 96 93 89 91 92
100 100 100 99 100 100 99 100 100 93 92 88 87 90 91 97 99 84 95 91 87 87 90 96 96 96 96 91 91 96 98 96 93 95 96 97 97 97 97 94 93 98 95
98 100 100 100 100 100 100 100 93 96 95 91 90 90 95 99 98 79 85 90 95 91 58 65 92 93 81 77 79 84 89 84 81 89 97 97 94 95 98 98 94 98 96
100 99 100 100 100 100 100 94 93 98 96 95 90 91 97 98 92 87 94 90 94 90 47 30 59 61 53 51 53 53 39 26 34 57 95 96 90 97 98 98 97 97 97
100 100 100 100 100 100 96 91 94 95 94 90 95 98 99 95 92 96 99 94 88 86 62 21 22 23 24 28 30 26 23 21 20 41 73 85 86 94 99 97 99 96 97
95 100 100 100 100 100 96 94 93 92 93 97 95 90 91 94 95 96 97 93 92 76 79 32 18 19 19 20 21 22 22 21 19 21 49 60 52 80 96 92 100 94 93
86 97 100 100 100 96 96 91 91 98 99 94 91 90 90 93 96 96 98 93 88 78 56 49 28 20 19 20 22 24 25 24 21 19 26 39 34 40 68 67 100 87 80
96 89 97 100 97 93 92 91 94 91 90 94 98 95 94 94 99 97 97 95 88 70 52 36 25 22 23 23 24 26 27 26 22 20 20 23 21 22 29 37 52 59 50
100 90 94 95 94 93 93 91 90 95 91 91 85 90 95 100 98 98 95 95 87 59 46 41 35 29 27 26 26 29 30 28 23 20 20 18 17 18 16 20 21 22 27
100 98 90 91 89 90 89 94 95 95 93 92 96 93 94 95 94 99 100 98 95 59 42 52 68 74 77 60 52 55 42 32 24 18 17 15 14 15 20 20 18 19 20

GFSGL_850_rhum_036.txt.gz
RH
52 50 52 47 38 34 38 47 58 69 66 40 61 74 86 76 77 78 76 72 70 72 70 76 86 90 90 78 77 55 49 66 72 70 72 74 71 66 64 61 61 66 83
55 48 44 40 40 42 39 43 61 69 64 44 60 69 74 75 72 67 64 61 64 68 72 72 73 67 65 63 58 48 43 61 70 70 75 69 73 74 75 69 62 57 55
52 52 48 48 48 50 60 62 66 69 47 57 62 77 76 68 63 61 62 66 67 68 69 70 69 69 67 63 59 58 61 67 80 85 81 79 77 66 53 58 67 66 59
52 51 54 52 53 56 63 62 68 73 58 76 74 78 78 74 63 62 64 67 69 70 62 57 68 67 63 71 90 95 93 90 88 91 91 90 81 69 64 62 56 54 68
53 56 60 61 60 63 73 76 87 97 76 83 85 76 68 61 62 64 67 69 68 62 62 71 70 63 59 89 100 98 98 95 92 95 97 97 92 79 72 66 62 71 60
49 50 58 55 65 67 73 78 84 91 90 79 74 74 61 62 65 70 72 72 67 72 76 76 75 71 70 78 87 85 92 97 98 95 91 85 77 73 65 80 87 85 82
37 46 50 50 52 69 76 84 86 99 96 78 85 64 64 67 73 78 73 70 75 79 82 79 80 82 79 70 78 81 76 80 84 90 94 94 88 86 87 83 86 90 85
44 46 50 53 56 56 58 58 94 92 94 93 67 67 70 77 78 70 68 77 82 82 84 81 83 82 72 90 94 94 94 88 87 87 90 85 83 78 93 89 82 94 87
45 47 50 54 57 54 74 88 70 82 69 66 68 72 78 79 70 68 70 70 77 84 86 81 72 81 97 100 97 96 89 82 74 73 73 79 94 93 96 93 84 99 99
50 53 58 61 54 74 100 93 76 79 87 80 81 80 81 72 70 67 61 63 57 54 65 70 80 90 100 99 98 96 96 86 88 84 83 82 82 77 76 79 80 80 81
58 62 62 60 71 100 98 85 81 90 90 80 79 81 76 75 73 68 68 65 66 98 90 84 90 96 98 96 95 94 97 94 94 94 95 95 95 95 95 96 96 97 98
70 73 66 65 77 84 94 98 97 92 80 81 85 80 80 79 77 74 72 58 90 92 93 92 98 97 94 91 96 97 97 94 96 96 96 96 96 96 95 94 97 92 89
81 85 87 76 82 100 96 98 97 93 87 86 87 80 82 81 79 79 69 74 85 90 97 100 100 93 94 96 96 96 96 94 94 95 95 96 96 96 96 96 97 100 90
95 98 92 80 100 99 98 97 96 90 94 91 82 80 83 82 81 83 87 93 90 90 96 95 94 95 96 96 95 96 96 96 96 96 96 95 95 94 95 96 95 96 95
98 98 95 100 99 98 96 95 89 95 92 86 85 87 86 83 86 89 100 98 97 97 96 92 91 92 92 93 95 96 96 95 95 96 96 95 95 95 97 98 96 92 92
98 98 100 100 100 100 100 100 100 98 92 92 91 92 90 86 93 97 100 99 86 94 92 91 93 95 95 94 92 95 96 94 95 96 96 97 96 97 98 95 88 93 93
98 99 99 98 99 100 100 100 100 94 94 89 89 86 86 89 96 96 92 79 83 77 59 85 95 96 96 83 85 91 94 96 96 97 97 97 98 97 98 92 89 92 93
99 97 98 100 100 100 100 100 99 95 93 90 90 86 86 90 94 91 84 79 74 77 37 38 72 76 69 70 77 82 80 69 74 95 96 96 96 96 97 93 96 95 94
100 100 98 96 98 100 100 100 96 95 95 96 88 86 90 97 97 93 90 91 87 80 54 21 33 48 44 45 54 52 32 27 44 85 99 96 96 96 97 93 96 100 95
99 100 100 99 100 100 99 97 94 95 94 94 95 96 95 93 95 93 92 96 95 82 78 23 18 20 21 25 29 26 23 20 22 64 87 93 92 98 96 97 95 92 92
100 100 100 100 100 99 99 96 94 95 95 98 96 90 92 91 95 93 95 99 96 85 73 56 20 18 18 19 21 22 23 21 20 31 56 62 64 86 92 96 97 91 89
79 82 91 98 98 97 96 96 94 94 97 98 95 92 97 93 99 99 98 100 96 89 69 56 40 24 20 20 22 24 26 24 21 19 32 42 43 51 72 73 91 84 72
89 99 94 90 97 96 94 92 95 91 95 94 96 98 97 93 93 96 97 96 95 92 74 52 32 25 24 24 26 25 28 28 23 20 20 24 25 24 42 48 62 52 47
100 100 100 97 95 93 92 92 91 92 93 97 95 92 88 89 93 100 99 95 91 88 66 48 41 32 28 26 25 27 31 31 26 21 20 18 17 17 17 22 25 23 28
100 100 99 100 98 94 93 88 89 92 94 97 95 100 98 90 87 95 93 96 96 94 73 47 54 65 66 60 37 53 76 65 37 22 18 17 15 15 18 18 17 18 18
100 100 98 98 98 92 93 92 93 93 93 95 96 94 90 94 97 92 90 92 91 88 77 53 55 85 93 94 93 87 62 42 34 26 20 16 16 18 22 26 28 25 25

GFSGL_850_rhum_039.txt.gz
RH
55 55 51 49 51 49 50 51 54 60 65 68 66 44 51 67 73 69 72 65 62 61 62 69 78 80 91 89 77 73 65 61 54 49 49 55 69 69 68 68 69 66 61
55 53 52 53 56 51 53 56 59 66 73 68 56 69 74 73 71 68 64 62 64 68 69 71 71 71 63 55 56 59 62 60 63 70 67 74 88 83 77 70 61 53 68
54 56 56 58 54 57 59 61 69 77 75 83 83 70 84 79 75 69 60 64 67 70 70 67 60 57 58 58 57 62 74 83 96 99 91 94 92 88 82 74 61 55 51
63 61 57 52 65 56 62 63 58 77 73 85 91 97 91 90 67 62 62 63 71 72 70 63 65 68 68 66 61 78 100 100 100 99 99 99 98 92 89 81 68 60 55
36 32 33 35 41 54 47 56 66 68 84 86 92 91 83 79 72 63 67 74 75 66 64 69 71 74 77 80 79 71 81 89 94 96 94 93 90 91 87 78 74 63 55
30 31 38 44 46 49 52 59 61 66 86 99 98 80 95 80 68 72 76 76 70 72 76 72 76 80 80 84 79 65 74 95 91 91 92 93 90 88 84 75 78 74 78
37 44 48 50 52 55 55 53 73 84 89 91 88 92 89 74 74 80 79 74 79 85 80 76 81 86 84 76 67 81 86 88 94 96 97 95 91 86 87 94 90 88 87
47 50 52 55 60 58 52 73 95 100 98 93 74 76 78 81 83 77 68 71 67 61 54 51 60 67 74 98 96 96 93 91 90 94 94 92 91 98 97 89 88 99 79
52 55 59 63 68 56 52 98 95 86 82 81 86 87 89 84 75 72 73 66 59 46 43 62 77 84 88 100 97 97 96 88 86 85 87 89 88 78 88 98 99 100 96
55 66 70 75 73 66 65 89 79 81 86 95 97 92 84 80 78 80 78 69 52 52 65 74 87 95 97 97 97 94 92 90 94 89 92 95 99 93 81 78 84 85 82
70 78 81 86 88 80 75 88 88 86 96 94 90 87 85 82 82 83 77 69 61 76 85 87 90 90 98 96 96 98 97 96 93 95 96 96 96 97 96 92 90 89 91
82 92 95 94 92 89 91 100 98 95 91 95 92 89 87 87 87 86 80 73 81 86 91 92 97 100 97 93 96 99 96 96 95 95 95 95 96 96 96 96 96 96 94
94 94 99 98 90 93 100 98 97 97 97 96 94 86 86 87 85 87 82 79 84 84 94 94 91 91 93 93 94 97 96 95 95 94 94 95 96 95 95 96 96 97 95
87 94 97 97 100 99 98 97 96 99 100 95 89 88 90 88 86 89 86 91 81 72 84 90 89 91 95 96 95 96 96 96 96 96 96 96 96 95 96 96 96 96 97
94 96 100 93 95 97 96 97 99 100 98 94 90 91 91 90 86 87 100 93 75 74 67 73 83 84 86 88 91 95 95 94 94 95 95 94 96 96 96 96 96 94 93
100 97 99 94 97 97 97 100 100 100 99 100 93 93 88 85 85 89 89 75 71 74 47 28 69 88 89 65 65 71 80 82 90 96 96 97 97 96 96 96 94 95 96
96 95 98 89 90 96 100 100 100 100 99 98 92 90 88 86 90 89 85 86 72 72 55 17 34 57 54 53 58 65 58 46 72 96 95 96 97 97 95 96 97 98 99
96 93 94 91 96 99 99 96 97 96 99 92 92 89 86 89 92 93 91 91 85 69 72 24 18 28 33 37 42 37 23 26 41 91 98 97 97 96 95 95 97 95 95
100 97 97 97 99 99 98 97 97 95 94 94 89 92 93 93 90 93 95 95 91 81 72 52 17 17 19 22 26 26 23 21 29 72 93 94 94 96 97 96 96 97 94
100 100 100 100 100 99 99 98 96 97 93 94 90 95 90 92 92 96 97 96 94 84 66 69 40 19 18 19 21 22 24 22 20 33 55 62 70 91 95 95 94 90 85
93 100 99 99 96 96 96 95 96 96 96 96 94 97 96 94 96 94 94 98 95 91 76 56 53 43 26 20 22 24 26 25 22 20 32 41 42 51 81 80 90 92 72
98 90 93 89 88 96 94 96 93 96 95 94 93 94 97 93 93 95 95 96 94 89 79 58 41 30 26 31 39 30 28 29 24 20 21 26 28 27 46 47 66 62 46
100 100 100 96 98 98 95 92 94 96 98 97 94 93 91 89 91 91 90 94 95 88 75 52 44 41 32 27 26 28 29 35 30 23 20 19 18 18 17 21 23 24 28
100 100 100 100 98 99 99 96 94 90 92 94 95 95 97 97 96 88 92 95 94 92 90 58 45 56 63 57 44 31 52 75 62 32 20 17 15 15 16 18 18 17 19
98 95 96 98 97 97 97 95 96 94 95 95 94 92 93 96 94 89 91 90 92 91 87 80 53 57 83 90 92 91 88 63 46 34 23 18 16 17 20 24 26 25 23
96 97 99 96 96 96 98 97 94 93 98 97 94 94 96 97 98 91 99 93 91 91 87 79 67 68 84 89 89 86 69 48 41 35 28 20 19 21 25 27 26 27 26

GFSGL_850_rhum_042.txt.gz
RH
59 54 54 56 56 57 53 55 58 61 70 80 76 68 71 70 77 76 80 69 66 62 66 69 74 74 73 70 67 65 64 65 72 52 55 51 53 51 74 80 73 64 62
55 56 57 62 60 60 57 63 64 66 62 81 79 79 89 89 79 90 75 68 63 66 69 71 70 69 66 61 60 61 59 59 74 78 66 67 72 71 97 92 76 67 63
54 59 50 39 30 35 54 55 48 54 64 72 81 84 94 94 96 83 75 64 65 68 72 74 68 62 63 65 67 66 64 64 92 98 92 92 93 97 97 95 88 76 70
37 32 29 29 35 42 44 45 46 49 58 70 83 86 100 95 97 78 87 70 71 74 75 66 63 69 73 77 86 88 86 84 76 82 86 96 95 86 94 96 95 84 72
34 30 35 41 47 48 50 53 49 57 73 83 97 98 99 96 85 88 82 75 76 76 65 65 71 74 96 95 100 100 100 89 94 88 92 91 89 87 90 90 94 82 72
31 35 44 48 51 56 62 57 48 65 96 98 81 92 95 96 90 86 81 78 76 65 65 61 58 60 64 80 83 81 94 100 98 98 99 94 87 89 85 90 94 97 81
34 43 48 55 60 65 69 56 52 81 100 97 89 84 84 78 88 87 83 74 67 66 58 53 46 52 63 73 78 86 88 87 93 96 97 96 96 95 98 97 89 95 94
33 40 59 65 70 75 75 67 63 93 80 80 81 77 80 90 94 84 74 69 66 58 49 50 64 72 81 93 99 97 96 94 96 96 95 89 88 88 89 86 98 96 88
29 35 61 72 78 83 85 78 77 83 77 80 86 91 93 93 85 77 73 72 64 58 51 62 78 91 90 100 98 97 90 86 95 95 97 96 96 96 97 99 98 97 98
28 35 50 80 89 89 92 87 85 92 91 86 96 96 92 90 82 79 81 78 70 59 57 69 82 90 100 97 99 99 96 94 91 87 91 94 97 97 95 98 84 95 100
30 39 63 87 92 98 93 99 100 97 98 97 92 96 95 88 84 85 86 81 76 68 70 74 85 95 100 100 100 97 96 98 94 95 94 95 96 96 97 97 93 85 81
37 51 76 91 96 95 89 99 96 98 97 96 96 96 92 86 85 86 87 84 83 69 72 74 84 100 100 100 96 100 98 96 96 95 94 93 93 93 95 96 97 96 95
46 62 69 86 98 96 100 98 98 98 97 95 97 93 88 89 88 87 91 79 65 64 69 66 72 83 86 88 93 96 96 94 95 94 95 94 94 92 91 91 96 97 96
61 80 90 100 99 90 100 98 97 95 97 98 97 93 91 92 90 87 87 76 64 56 65 38 44 82 84 85 80 91 95 95 96 96 95 95 95 95 96 96 95 96 96
76 95 93 96 96 89 98 96 95 100 99 96 100 95 93 89 88 86 94 80 74 54 63 32 18 52 70 57 44 56 64 67 80 95 94 95 96 96 96 96 96 95 97
88 93 93 96 90 91 94 93 96 100 98 97 97 95 92 90 87 87 86 81 79 59 65 44 16 25 33 41 37 35 26 31 61 94 96 96 96 96 95 96 96 96 97
100 97 95 100 99 91 89 92 88 94 98 99 99 93 93 89 90 89 85 83 84 70 61 62 18 17 19 24 30 27 22 22 37 92 96 95 96 97 96 95 95 96 96
100 100 98 99 100 96 100 97 95 94 95 96 95 96 93 96 94 87 87 88 90 80 53 66 42 17 17 18 22 22 22 21 26 65 91 94 95 94 93 92 92 93 95
100 100 100 100 97 98 98 99 97 97 96 99 96 94 96 100 95 90 92 91 91 88 60 52 64 40 19 18 20 22 25 24 21 29 55 60 70 84 95 96 96 96 90
100 100 100 100 96 94 98 98 97 98 97 94 94 94 99 100 93 94 92 90 89 88 76 52 46 54 44 28 22 23 26 27 24 21 32 42 45 52 75 79 81 82 73
100 100 95 100 84 89 96 100 100 96 97 97 94 93 99 99 94 94 93 93 89 86 79 59 46 39 31 30 41 42 32 30 28 22 21 27 29 29 50 51 60 69 46
98 98 98 99 97 96 94 93 95 92 94 95 92 94 98 98 94 93 94 93 93 88 86 67 46 44 44 31 27 27 29 35 35 25 21 21 20 20 20 25 29 27 36
99 96 91 96 100 100 100 97 97 96 94 92 92 93 98 97 96 94 92 93 96 94 92 86 62 47 55 61 54 39 30 57 73 49 22 19 16 16 17 18 18 19 20
96 93 98 97 97 96 95 95 95 97 97 95 92 94 91 91 92 93 96 90 88 92 93 90 85 60 56 77 85 89 80 85 64 42 28 21 17 17 20 25 26 24 24
98 98 97 97 97 97 97 95 96 96 97 95 94 92 94 96 93 95 99 98 94 88 88 88 82 75 64 76 87 88 89 72 53 40 32 24 19 20 24 26 26 26 24
100 100 99 98 97 97 96 96 96 96 96 96 95 93 93 96 95 95 93 100 94 95 89 88 86 82 74 79 87 89 84 61 46 43 37 28 24 24 26 28 27 26 25

GFSGL_850_rhum_045.txt.gz
RH
57 55 54 56 60 60 49 42 61 64 62 59 55 73 82 77 84 83 88 96 78 74 63 65 67 71 71 71 71 78 82 86 79 68 70 77 88 91 90 88 85 86 79
44 50 54 43 32 26 28 39 40 40 42 48 56 80 88 91 96 99 98 78 85 68 64 70 73 74 70 77 86 85 86 87 85 79 78 82 83 91 93 94 90 82 78
43 38 34 30 24 32 43 46 46 40 40 48 61 83 98 100 98 100 97 81 77 71 74 77 76 71 90 93 96 94 93 94 92 95 86 81 81 92 94 90 90 92 90
32 32 24 29 42 48 49 49 45 45 43 46 65 87 90 95 100 97 86 83 74 77 78 76 65 77 97 99 100 100 100 99 99 91 83 77 78 82 86 94 85 85 86
29 25 31 43 47 50 52 52 51 52 50 60 80 88 77 86 97 95 86 78 80 81 72 60 59 55 52 58 96 99 100 98 94 92 87 83 83 82 82 85 89 91 89
24 28 37 42 44 48 59 66 68 64 58 92 89 84 82 92 90 78 81 85 81 70 62 57 50 43 58 66 73 80 98 100 100 98 95 90 87 85 90 94 96 96 89
23 23 24 33 48 62 74 78 74 72 72 86 80 95 83 81 83 87 86 79 70 65 59 51 45 68 83 100 100 96 100 98 97 96 98 100 92 90 90 95 93 99 91
22 20 23 31 47 71 83 86 81 81 84 89 82 84 84 87 90 84 80 67 65 63 56 50 66 100 100 100 100 98 100 100 100 100 98 98 99 99 99 98 98 98 99
21 22 26 36 53 79 85 88 87 80 86 99 94 93 95 96 87 84 73 70 68 61 55 57 85 100 100 100 98 100 100 100 98 96 92 89 96 93 93 97 98 97 96
25 27 31 40 55 78 81 87 86 86 88 91 95 98 93 89 89 80 77 74 68 67 86 92 100 100 100 99 98 99 100 100 100 100 100 100 99 96 95 97 98 96 95
31 33 38 46 55 68 83 89 86 94 98 98 97 92 92 89 82 78 79 79 83 98 99 98 99 73 100 100 100 100 98 99 96 100 100 100 100 100 96 96 97 96 99
37 40 44 48 52 66 84 82 93 96 98 98 95 95 87 81 78 82 81 81 83 84 68 86 66 45 76 82 91 99 97 95 94 100 100 100 100 100 91 87 94 97 96
42 42 53 55 64 86 82 90 93 95 98 99 94 88 85 82 84 85 82 81 78 68 55 62 35 31 71 78 66 62 85 93 90 99 100 100 97 92 92 95 95 97 96
44 56 68 68 75 87 81 96 96 96 95 95 94 93 90 87 88 85 82 81 77 72 53 58 34 20 46 57 41 42 49 44 64 96 96 96 96 96 97 97 97 95 96
64 85 87 76 84 89 86 94 94 89 87 100 98 96 96 96 96 86 86 92 85 78 58 56 44 18 24 33 36 26 21 24 48 91 94 95 96 96 96 95 96 96 97
100 100 100 94 93 96 94 90 84 84 87 97 93 93 92 92 92 88 89 86 85 82 65 51 58 27 18 20 25 24 22 20 32 78 94 96 96 95 94 97 95 97 100
100 98 100 95 98 100 100 100 100 96 89 92 92 92 94 94 93 94 93 90 89 86 79 51 58 48 24 19 20 22 24 23 21 49 80 91 93 95 95 100 99 100 100
99 98 100 100 100 100 99 96 100 100 100 100 86 95 92 94 97 100 97 94 92 89 89 70 49 60 46 26 22 23 25 27 24 23 40 52 61 83 95 97 99 92 90
99 99 99 100 100 99 87 86 91 94 100 100 97 93 92 97 97 99 97 95 94 92 91 84 58 47 52 49 40 31 28 29 28 23 27 36 40 47 74 84 87 89 78
99 100 100 100 100 100 96 94 91 92 100 100 100 97 92 96 96 95 98 96 95 90 88 86 74 51 45 37 37 49 52 40 32 26 23 28 30 31 52 56 64 78 59
100 100 100 96 90 93 92 93 87 89 90 90 92 88 93 98 99 95 96 98 95 94 92 89 82 62 50 48 38 30 35 38 41 33 24 24 22 22 26 32 40 38 57
97 99 98 97 98 94 95 95 95 94 92 90 87 85 88 95 96 93 94 90 89 95 94 91 87 77 54 55 58 51 40 35 63 64 32 23 19 19 19 20 21 23 34
100 100 97 95 94 97 98 94 95 94 94 93 95 96 90 87 89 94 92 90 97 95 90 92 88 86 71 58 68 74 74 61 77 59 36 26 20 18 22 26 25 24 24
92 97 100 97 96 98 97 97 97 96 96 96 96 96 95 92 87 89 93 93 92 98 89 86 86 86 84 67 67 80 84 83 74 54 39 28 22 21 24 28 28 27 26
100 100 100 100 99 98 97 96 96 97 97 97 97 97 96 95 92 89 91 92 93 100 95 90 86 86 82 76 70 81 84 83 68 48 41 33 26 24 26 29 28 27 26
98 98 97 97 96 96 97 99 97 97 96 96 96 96 97 96 95 92 94 96 94 94 100 97 91 87 86 82 75 80 86 83 63 50 45 38 32 29 29 31 30 29 28

GFSGL_850_rhum_048.txt.gz
RH
56 59 60 57 49 52 57 56 55 57 53 53 56 64 70 75 86 89 93 90 94 92 84 83 76 73 71 65 64 62 61 58 57 52 51 52 56 60 62 78 82 70 64
60 54 47 47 51 50 49 52 55 56 60 63 72 80 80 87 96 90 86 94 99 93 83 81 78 72 71 68 65 64 65 64 64 62 58 60 62 62 64 70 74 73 70
40 41 44 45 43 46 52 57 61 68 71 76 83 84 86 97 100 99 100 99 98 91 86 85 83 77 74 70 71 71 70 69 72 78 74 70 68 69 68 75 83 80 72
40 39 35 40 50 55 58 64 72 78 83 87 89 94 83 82 76 79 97 100 99 92 93 89 83 83 81 82 80 76 70 68 74 92 86 78 74 72 75 74 70 76 75
29 30 40 54 58 62 66 75 81 88 89 92 98 94 78 90 100 100 100 95 91 87 84 81 76 78 61 59 90 88 88 84 83 85 83 82 79 78 76 73 73 74 75
21 40 47 53 61 69 74 81 85 83 86 98 96 98 100 98 81 73 76 90 86 81 76 75 72 73 77 83 98 93 93 100 97 94 91 91 85 84 82 84 88 81 84
33 42 44 48 58 67 74 82 84 87 96 100 100 100 100 100 80 81 86 85 90 84 83 78 76 73 88 89 95 95 95 97 98 96 100 94 95 96 94 90 84 84 82
24 25 34 46 47 70 82 85 83 89 100 100 99 99 100 100 88 91 81 85 94 92 90 91 87 88 92 97 100 100 98 96 99 98 96 100 100 96 98 100 99 97 92
36 45 44 42 74 83 84 87 87 98 99 93 100 100 100 100 92 84 79 96 100 100 98 94 95 97 99 91 100 100 100 98 95 97 96 92 90 85 91 96 100 98 98
55 32 42 78 88 90 93 93 93 94 100 99 98 100 100 100 93 84 74 96 100 100 99 93 92 96 68 100 100 100 100 100 100 100 100 97 96 97 96 96 99 100 90
36 46 66 81 89 89 66 100 95 92 100 100 96 98 100 99 93 73 73 76 100 100 100 94 94 93 32 62 89 100 99 100 100 100 100 100 97 100 100 100 100 97 98
55 69 76 92 91 92 100 98 97 100 98 98 98 96 100 100 96 82 74 76 76 91 100 100 95 56 24 52 82 61 44 88 100 100 100 100 100 100 100 100 92 88 95
52 75 94 94 94 92 100 100 100 100 100 100 97 100 100 99 100 100 87 78 77 80 94 66 48 47 23 65 74 37 79 100 100 100 100 100 99 100 100 95 94 97 96
87 92 64 74 98 99 100 100 100 100 100 98 98 98 98 98 98 96 99 100 100 100 100 95 57 62 54 66 96 100 98 83 82 100 100 100 100 98 95 95 96 98 96
92 98 100 100 99 99 100 100 99 96 96 90 97 96 94 97 96 95 92 98 100 98 80 96 100 100 89 83 88 95 96 88 82 100 100 100 100 100 100 97 98 99 99
95 97 100 100 100 100 98 99 100 95 92 84 77 87 90 95 93 90 87 87 83 78 85 100 100 100 100 91 90 91 93 88 42 56 100 100 100 100 100 100 100 100 100
86 100 100 100 100 100 99 100 100 100 98 97 96 90 89 90 92 92 92 94 89 83 99 100 100 100 100 97 87 84 85 76 34 39 90 100 100 100 100 100 100 100 100
80 99 98 99 100 100 99 100 100 100 100 100 100 98 98 92 90 89 94 99 100 99 94 100 100 100 100 95 88 87 75 45 53 30 47 74 100 100 100 100 100 100 100
100 100 99 98 99 100 100 100 98 99 100 100 100 98 95 92 94 93 92 99 100 100 96 100 100 100 100 100 97 56 54 74 48 36 46 53 70 98 100 100 100 100 99
100 100 100 97 98 100 100 100 99 98 100 100 100 100 96 95 96 97 93 96 98 100 100 100 100 100 100 100 95 68 62 100 78 54 39 65 60 66 99 100 100 100 95
100 100 99 93 96 96 98 100 100 97 97 100 100 100 100 100 99 93 96 100 94 100 100 100 100 100 100 100 92 69 67 52 55 63 58 40 24 54 47 82 96 97 97
82 99 100 100 99 98 96 96 97 99 100 99 100 99 100 100 97 100 100 99 92 90 93 96 99 100 100 100 95 75 71 63 53 71 60 40 32 82 85 91 79 89 84
84 100 100 100 100 97 95 99 99 98 97 98 100 100 100 100 100 100 96 93 91 89 93 96 94 92 93 84 76 62 71 78 73 76 56 39 33 54 54 96 86 56 35
100 100 98 96 94 93 92 92 93 95 95 95 95 96 98 100 99 96 96 96 87 89 94 95 96 89 88 88 81 68 69 78 78 71 53 38 30 30 29 57 58 30 28
99 100 99 93 91 92 92 91 91 92 93 94 95 95 96 96 97 98 97 96 97 96 92 92 98 95 87 87 84 76 70 78 79 70 51 42 34 29 28 32 32 41 29
85 97 90 88 89 89 92 93 90 89 89 90 93 94 94 98 99 99 98 96 96 96 94 94 94 98 94 90 87 82 74 78 80 72 53 46 40 36 35 35 34 34 32

GFSGL_850_rhum_051.txt.gz
RH
55 71 66 63 53 50 51 50 49 53 51 53 56 57 62 65 63 66 79 85 80 82 82 91 88 80 79 76 71 67 54 53 57 59 54 54 53 55 56 59 64 67 69
73 54 48 47 47 46 42 46 50 54 59 62 64 66 68 64 65 74 82 83 88 93 97 96 95 85 84 77 64 56 57 58 60 62 59 57 61 66 65 70 66 64 75
52 38 39 40 39 41 44 50 54 59 64 69 71 70 70 84 95 75 95 100 97 98 97 91 90 89 76 63 65 66 65 61 60 59 58 64 75 76 76 70 71 74 69
37 36 33 36 44 48 52 56 60 66 72 72 71 76 88 88 95 100 98 97 97 98 96 92 81 69 69 80 79 76 72 71 69 66 63 66 74 75 77 76 78 76 79
40 34 32 40 48 50 55 61 67 73 72 68 72 81 96 94 99 91 94 97 93 88 83 67 65 69 69 67 74 85 91 85 80 78 79 82 78 77 84 89 84 80 78
36 35 37 41 45 49 55 64 67 68 67 71 87 87 97 98 94 84 72 90 85 79 67 68 70 69 64 73 87 97 97 93 93 92 89 93 94 84 85 95 93 94 92
38 35 37 42 46 50 51 56 65 69 70 85 91 95 95 96 94 88 76 81 87 74 75 75 74 68 78 84 92 88 90 97 98 98 93 95 96 99 98 97 90 87 92
38 40 42 47 53 56 60 66 68 69 74 88 93 100 82 98 96 83 85 78 82 81 83 83 79 79 83 86 83 95 99 99 96 96 95 98 99 97 94 95 92 90 87
38 42 48 54 60 65 70 72 74 73 78 88 92 99 95 99 92 82 82 83 91 95 95 86 88 86 89 79 51 99 100 99 96 98 100 96 84 83 87 94 85 97 92
43 50 57 64 68 71 76 85 87 81 74 92 95 99 98 98 96 88 85 72 100 100 95 89 90 91 88 76 33 97 100 100 98 100 100 95 98 98 96 97 95 97 97
52 59 64 70 72 74 77 84 89 80 89 85 95 98 99 97 98 95 89 71 95 100 100 95 94 94 71 42 33 78 97 47 66 94 99 94 98 99 97 90 91 96 98
61 66 72 74 78 75 77 79 82 87 92 93 98 91 97 93 93 94 93 79 75 77 100 100 99 70 49 36 42 70 56 75 100 95 94 98 99 100 98 99 100 96 95
69 72 75 85 79 89 78 78 87 97 98 96 90 98 94 90 97 94 94 89 88 73 98 95 77 60 58 64 89 86 86 100 97 96 95 100 100 100 93 94 92 92 91
75 76 80 88 95 92 97 88 91 92 91 86 91 92 88 95 90 99 98 92 92 96 100 98 86 89 94 91 89 95 98 98 97 95 96 100 100 100 100 97 90 91 94
75 77 83 87 100 100 100 99 97 95 94 92 93 96 94 94 96 97 93 93 96 97 92 81 100 100 98 95 92 92 93 92 93 93 99 97 96 100 100 96 98 94 98
82 87 88 95 100 100 99 98 100 100 95 93 92 89 80 81 93 92 92 89 85 83 83 100 100 100 100 98 96 93 93 93 94 92 98 100 97 97 99 100 100 100 97
92 94 96 99 100 99 100 100 98 96 99 99 96 94 94 91 89 91 95 91 94 100 98 100 96 93 100 100 95 91 90 96 86 100 99 100 100 100 97 99 100 100 100
96 92 96 100 98 98 99 95 95 93 93 98 97 97 95 91 88 90 94 92 98 98 99 100 95 92 100 98 92 92 98 100 100 100 100 100 100 100 100 96 95 98 98
91 90 93 94 97 94 92 92 92 93 93 93 93 94 95 95 92 89 92 95 97 96 100 99 95 92 95 100 96 97 100 100 100 100 100 100 100 100 100 99 97 96 93
88 83 88 93 92 89 89 94 96 96 94 91 94 96 93 98 93 92 92 91 90 88 90 93 93 94 97 100 99 96 98 97 99 100 100 100 100 100 100 100 100 98 93
91 89 90 96 99 95 96 97 96 96 95 92 93 91 93 96 93 92 92 91 87 93 94 89 92 93 96 99 100 100 100 100 100 100 100 100 97 100 100 100 100 100 96
98 85 76 89 100 100 99 90 89 86 87 95 94 94 96 95 99 97 97 97 93 87 90 93 90 93 93 100 100 100 100 100 100 100 100 75 86 100 100 100 100 100 100
99 99 97 99 97 94 91 91 93 92 92 92 94 95 95 96 97 98 97 94 96 96 90 89 90 91 95 100 99 96 100 100 100 97 75 59 70 100 78 100 100 100 68
96 98 99 97 94 89 88 88 92 93 94 93 94 94 94 95 96 96 97 96 96 96 96 94 91 92 100 100 93 87 84 77 74 74 72 57 42 81 67 100 100 87 54
98 97 96 95 94 95 94 91 94 96 96 95 89 88 89 92 94 94 97 96 97 96 96 96 96 94 93 100 96 86 86 76 70 76 74 58 46 38 33 38 55 59 56
96 96 96 99 100 100 100 95 94 98 97 97 97 97 96 92 90 93 93 92 95 98 96 96 95 95 95 96 97 93 92 83 73 76 78 62 50 51 74 76 62 42 62

GFSGL_850_rhum_054.txt.gz
RH
63 59 68 70 74 56 51 51 50 50 52 55 57 61 63 66 66 65 68 74 76 84 86 80 74 92 94 94 82 73 67 68 65 64 64 64 64 61 61 60 54 54 58
61 70 71 53 48 48 47 43 46 50 55 59 65 68 71 70 73 73 81 85 84 80 67 92 95 96 95 82 72 73 71 71 70 69 64 61 63 65 68 68 54 60 64
64 46 44 41 41 40 42 45 50 54 59 65 71 71 70 74 74 61 74 87 95 87 93 88 90 76 85 81 70 70 70 63 62 73 74 70 70 69 72 66 65 68 72
45 43 37 35 37 45 50 52 55 59 65 71 70 68 74 81 76 78 84 87 85 82 86 87 85 81 69 69 70 64 63 75 79 86 80 77 77 69 68 80 85 78 85
40 38 34 35 41 48 49 52 57 64 67 69 68 73 80 70 90 91 95 83 84 96 94 85 74 66 67 67 66 71 88 91 90 85 88 84 84 87 83 86 92 88 75
42 36 37 38 39 38 40 45 53 56 61 67 70 77 81 79 95 98 97 93 72 76 82 75 72 70 68 69 80 86 92 91 90 97 95 94 85 73 95 95 96 90 86
40 37 37 37 39 45 49 53 56 60 67 70 74 82 71 85 86 88 98 97 75 71 80 78 81 76 75 81 81 75 65 46 88 93 97 96 97 97 93 93 81 75 78
38 38 40 44 47 52 57 64 67 70 71 71 79 80 84 87 89 96 97 89 77 75 86 88 81 86 88 83 73 69 49 51 88 93 96 95 94 91 79 81 87 90 80
43 45 43 47 51 63 65 69 73 73 76 79 78 87 83 99 94 97 93 86 80 71 80 74 93 91 87 83 80 59 36 55 85 96 78 74 84 87 90 98 90 99 84
40 38 36 47 67 68 70 73 76 74 72 83 82 84 79 96 98 94 94 87 86 69 66 92 90 95 95 85 75 45 36 64 47 52 76 82 86 89 92 97 97 97 98
39 43 42 63 70 70 72 73 76 80 82 90 86 85 88 90 99 98 93 90 85 73 90 92 95 97 97 86 50 39 52 68 66 82 86 82 87 88 90 90 88 90 87
43 40 52 70 72 67 68 78 78 80 88 91 86 86 86 78 87 96 95 88 88 88 80 75 90 94 80 59 57 59 75 81 88 98 78 90 85 86 89 92 97 97 97
41 61 68 72 76 69 63 60 86 87 87 82 81 81 77 79 83 84 95 97 94 88 86 80 80 83 74 85 79 87 94 89 94 87 86 88 87 87 91 92 87 86 81
63 66 69 75 76 81 80 78 88 97 100 97 95 95 99 100 90 81 94 90 98 94 89 92 93 83 89 95 93 95 93 91 98 94 94 71 90 91 86 92 94 92 87
66 69 72 72 85 89 95 100 100 100 98 99 99 98 95 88 78 87 96 98 98 98 95 94 89 82 96 90 86 89 90 87 96 96 75 83 90 90 84 85 96 93 92
68 61 65 74 80 88 99 100 96 95 95 98 95 96 95 95 90 86 83 91 92 94 94 90 92 91 90 93 88 86 91 90 96 90 92 95 96 91 85 90 95 90 90
82 86 83 84 87 89 91 90 89 85 89 92 92 93 93 95 98 95 87 89 94 98 96 94 93 90 92 88 89 88 97 94 94 93 98 93 98 94 85 95 94 95 89
77 74 86 86 89 86 90 92 86 86 85 80 77 81 86 88 91 92 95 93 92 93 91 91 89 90 87 89 86 99 99 91 94 98 91 96 99 97 92 93 88 95 86
68 87 90 85 87 86 86 88 87 91 95 91 89 85 83 91 95 96 98 96 89 89 91 93 97 91 98 98 92 90 92 94 94 89 93 98 98 100 93 96 88 88 91
83 88 90 86 89 89 88 94 97 100 99 98 96 92 93 97 95 92 90 94 94 91 85 84 84 85 88 90 95 94 95 96 94 95 98 94 99 98 87 100 94 91 96
100 95 90 92 95 97 96 95 97 94 93 90 86 88 94 97 96 96 97 96 95 96 96 95 96 96 94 96 95 94 97 99 95 97 97 92 95 73 95 95 100 95 92
86 87 99 92 98 93 94 88 92 87 87 90 90 90 93 97 97 95 96 95 95 95 95 97 96 97 96 92 94 92 94 97 99 96 92 84 72 68 100 88 100 96 88
88 93 95 99 96 88 92 96 90 89 92 96 96 95 96 97 97 96 95 95 96 96 96 96 95 96 95 95 94 96 97 97 97 92 82 76 64 54 76 68 96 89 53
86 77 99 100 98 96 96 97 98 97 97 96 97 97 96 95 95 95 95 97 97 96 96 96 96 96 95 96 94 92 94 96 91 80 73 73 65 47 49 44 68 74 58
89 90 96 97 96 96 95 95 96 96 95 94 95 96 96 96 97 98 96 94 95 93 91 96 96 96 96 95 95 94 96 98 87 77 69 74 66 51 41 35 38 45 54
98 98 97 96 96 96 96 96 93 96 100 94 97 97 99 100 99 98 93 96 96 92 90 94 96 97 97 96 96 96 98 96 95 92 74 75 73 56 49 51 56 51 51

GFSGL_850_rhum_057.txt.gz
RH
72 73 69 61 69 65 60 60 50 51 49 48 50 52 53 59 66 69 70 72 78 85 88 89 86 82 98 99 98 97 90 77 75 72 69 68 66 64 63 68 68 66 64
68 67 62 62 53 54 53 48 44 46 48 50 53 58 55 66 71 70 72 63 56 67 74 81 98 93 90 89 90 86 78 74 72 68 59 44 46 58 72 72 69 66 60
65 61 53 47 48 52 42 42 45 46 49 50 55 56 65 72 72 73 76 63 74 66 70 77 89 92 90 83 76 71 70 68 59 56 60 56 58 58 69 64 65 67 70
60 44 44 47 54 36 39 44 44 44 53 61 62 62 71 72 73 78 72 77 74 77 80 87 95 87 77 72 69 65 62 63 67 77 71 60 76 73 74 78 69 68 74
46 40 42 40 37 37 38 38 38 44 48 57 62 68 72 72 77 74 82 92 97 92 88 89 87 79 74 71 66 69 71 79 82 75 54 80 86 80 81 92 99 92 71
42 41 41 39 31 24 24 26 20 31 51 57 63 69 73 75 78 67 78 85 92 98 96 81 80 78 76 72 74 79 85 79 68 45 70 96 88 92 99 94 86 79 75
44 39 35 34 32 39 37 20 38 56 63 68 75 75 74 79 78 65 81 81 94 95 87 74 78 82 83 79 82 82 76 65 49 47 87 95 99 98 94 93 82 86 85
40 38 54 54 62 39 43 49 60 65 67 71 72 80 80 77 79 72 98 92 91 88 77 68 76 89 84 82 84 76 75 58 38 61 98 92 90 81 98 98 95 96 84
45 60 73 59 42 41 39 61 68 68 61 61 57 80 81 83 84 74 92 97 95 95 86 77 67 77 82 88 86 83 65 44 44 53 46 76 82 84 94 98 96 97 94
56 80 54 51 36 55 65 70 71 73 73 79 81 86 88 86 74 90 100 100 98 93 85 76 66 78 83 88 85 73 50 46 54 60 65 53 74 87 90 93 96 98 93
62 65 57 51 41 52 55 64 71 79 82 82 83 87 90 86 78 80 98 99 96 96 85 77 76 77 80 83 87 69 60 64 72 81 72 70 72 80 82 84 89 98 97
59 53 51 43 57 70 64 51 48 55 83 91 90 89 77 75 78 84 89 91 94 99 92 86 83 83 84 87 76 76 80 80 83 83 85 80 65 76 84 86 86 90 89
48 44 42 52 59 68 67 58 59 62 64 88 97 92 84 88 86 83 83 78 85 93 90 97 86 80 79 80 81 90 92 94 90 91 95 87 82 75 87 82 81 87 85
50 47 52 59 64 68 58 69 81 73 65 82 92 98 98 99 99 97 96 85 85 90 94 96 94 91 89 82 91 92 90 94 89 94 97 93 78 70 76 76 91 93 86
57 62 63 58 54 50 63 73 79 71 83 88 93 96 97 93 92 97 98 93 86 93 93 98 97 95 89 82 88 97 87 87 93 89 92 93 81 83 70 75 95 95 98
58 60 63 62 62 67 70 68 70 65 71 78 82 86 85 88 90 95 98 92 94 90 98 94 92 93 87 82 93 98 92 88 98 93 91 86 91 88 79 74 90 91 91
64 67 74 81 86 79 80 78 72 63 77 84 83 79 79 79 83 91 96 97 99 91 94 93 94 90 88 86 91 92 91 93 97 93 92 86 90 90 91 78 84 86 84
68 72 72 70 70 79 85 81 80 87 91 82 79 89 89 91 90 89 95 96 97 94 93 89 87 86 86 88 88 93 94 88 94 96 92 86 90 94 91 87 82 85 87
76 86 94 97 96 95 98 97 88 94 96 84 84 81 84 98 96 93 97 96 95 94 94 94 86 87 89 94 92 97 98 95 93 93 88 92 92 98 90 87 89 86 85
54 58 66 74 87 91 98 98 98 96 95 100 93 89 89 88 90 96 96 97 96 95 95 95 93 88 80 84 86 89 95 93 92 92 90 89 98 89 88 87 95 96 88
80 84 90 86 77 100 98 98 99 95 94 87 81 84 94 98 96 96 89 97 94 93 95 96 95 96 96 95 95 99 97 95 93 88 90 94 93 81 78 84 98 93 78
88 91 91 86 84 74 98 100 96 96 90 87 83 90 88 91 91 97 95 97 96 96 96 96 94 90 92 97 96 98 96 95 91 88 89 89 82 78 66 77 90 89 60
62 70 73 77 76 92 93 97 97 100 99 98 97 97 81 96 97 96 96 96 96 96 97 97 96 96 95 93 95 96 97 95 92 95 94 84 78 76 57 52 63 66 53
99 99 100 99 98 95 96 96 95 95 95 95 93 94 94 95 95 95 96 96 97 96 95 96 97 97 97 97 96 96 94 96 99 93 93 85 76 77 58 48 45 49 42
88 90 93 96 95 95 96 96 95 96 96 96 96 93 94 92 95 95 93 94 94 95 98 98 91 94 95 96 97 96 96 96 98 96 90 78 72 73 60 45 36 42 41
81 83 86 91 94 96 96 97 97 96 96 96 96 95 97 95 94 95 94 97 97 91 96 96 95 85 94 94 97 97 96 96 96 97 96 92 76 75 64 50 46 54 48

GFSGL_850_rhum_060.txt.gz
RH
62 68 75 76 68 76 74 70 73 46 45 42 40 44 47 43 47 39 60 67 69 72 61 57 78 89 93 93 94 98 92 89 89 79 72 67 56 43 38 37 40 51 62
68 75 75 70 76 82 56 66 55 47 44 44 48 50 47 56 49 66 71 72 76 76 60 57 67 88 91 91 86 88 86 77 72 68 60 47 42 41 39 45 47 60 66
75 73 72 80 63 50 59 57 44 45 48 50 42 44 61 57 59 72 76 78 76 71 72 68 70 80 92 88 83 76 72 70 63 65 56 51 44 37 50 64 67 68 66
72 75 58 50 47 57 51 44 42 40 33 38 34 54 61 63 69 76 77 77 68 88 88 93 94 95 88 80 76 74 70 66 70 68 66 51 41 49 74 78 87 90 84
66 50 45 44 46 51 46 33 30 46 52 34 45 55 64 68 75 79 78 76 74 85 98 96 96 93 86 81 76 75 73 74 77 77 58 42 49 73 88 93 96 81 72
54 47 39 41 46 39 41 45 65 63 33 34 55 61 67 78 78 79 79 70 68 84 88 100 92 95 85 80 81 81 79 84 84 74 51 41 66 90 94 94 79 91 97
49 41 39 36 42 51 67 67 48 38 46 54 66 69 72 75 82 82 82 81 73 86 97 86 83 83 84 87 88 87 87 85 81 64 40 54 58 65 73 75 89 99 93
44 41 41 51 68 58 42 44 38 46 52 56 56 50 51 62 82 85 87 82 84 98 91 87 90 86 80 84 90 84 83 78 70 44 49 54 54 77 89 95 100 97 96
42 43 63 65 54 48 46 38 44 57 62 60 66 60 64 76 82 86 86 75 98 100 96 97 96 83 76 71 82 81 80 70 52 50 60 70 70 67 91 94 92 96 92
52 62 79 47 49 48 41 43 52 55 59 65 70 75 84 86 91 90 79 79 89 96 100 98 91 75 70 79 79 83 77 60 57 62 63 64 63 64 71 85 97 99 100
75 76 52 55 48 45 44 52 54 52 48 48 49 79 95 96 95 72 77 85 85 99 94 92 96 88 82 80 81 77 70 72 73 76 77 74 72 72 62 73 82 90 94
54 46 34 31 33 40 47 52 50 46 47 52 57 51 78 95 93 86 77 79 76 84 77 84 94 99 87 78 76 79 81 84 85 91 90 76 81 84 70 68 68 71 87
30 28 31 36 39 45 50 51 51 49 52 55 51 50 53 74 94 95 98 96 93 92 91 85 96 98 95 84 86 87 85 88 90 91 89 80 88 92 77 64 56 84 91
36 40 44 46 46 51 56 55 52 56 63 68 69 59 64 71 80 87 95 97 97 96 94 88 98 100 97 93 92 88 89 92 93 89 90 90 94 92 74 69 72 90 82
52 53 55 58 60 62 64 63 66 63 65 76 77 77 75 70 73 85 94 96 95 97 99 90 86 100 97 95 93 88 89 96 96 90 93 95 96 88 72 71 74 88 85
59 62 67 70 72 73 77 87 86 83 72 72 80 84 82 80 75 78 85 94 99 98 96 95 93 95 96 93 94 84 88 96 95 91 93 98 100 83 73 73 72 78 83
62 61 62 67 71 78 87 100 99 88 90 88 85 85 97 82 86 88 92 95 98 100 97 95 88 93 95 94 91 89 92 86 97 89 93 100 98 79 76 74 77 76 77
39 47 50 45 43 49 62 80 94 100 98 96 93 92 95 92 90 94 98 98 97 97 96 96 94 92 94 90 89 89 87 92 96 96 99 100 91 85 75 84 75 82 84
27 22 22 31 58 90 99 98 90 100 100 83 100 97 93 93 84 84 82 91 98 96 94 96 96 96 94 87 86 90 94 96 96 99 100 100 91 86 82 88 75 80 84
18 25 32 37 53 80 75 73 70 84 98 98 97 94 82 83 84 86 84 88 94 94 97 97 94 96 96 96 84 81 91 98 97 99 100 100 94 84 87 78 77 74 78
19 26 43 56 70 82 88 86 85 100 98 96 88 87 96 97 94 90 90 89 95 93 95 97 96 95 96 96 96 90 85 88 97 100 100 95 90 84 89 67 78 74 75
56 85 95 96 98 100 99 100 100 98 98 97 98 97 98 96 94 94 97 98 98 97 93 96 97 96 96 96 96 96 95 95 95 98 100 95 92 88 81 62 68 56 62
63 72 77 83 88 88 86 90 93 94 95 95 96 95 95 97 94 91 95 95 96 96 95 98 96 94 96 97 96 96 95 94 94 94 99 98 97 86 77 63 52 45 52
61 66 71 74 81 86 90 92 91 94 95 94 96 96 94 96 95 95 94 91 92 88 91 96 94 97 96 96 96 97 97 95 96 95 97 98 98 89 78 69 50 38 41
53 61 70 74 81 87 90 93 91 93 95 96 96 95 96 95 95 96 95 93 93 94 93 92 94 96 95 95 96 96 96 97 96 96 96 96 95 83 74 69 50 37 39
52 57 69 77 81 86 92 94 93 94 94 94 96 96 97 96 94 92 79 86 92 94 96 97 98 96 93 80 85 96 94 97 95 95 97 98 92 83 74 71 54 44 47

GFSGL_850_rhum_063.txt.gz
RH
69 67 70 72 73 69 70 80 86 84 63 53 46 44 44 37 33 46 41 47 62 73 76 75 60 57 64 76 87 87 87 83 81 77 72 68 59 48 42 36 33 33 38
69 68 69 73 71 68 79 88 64 56 48 45 45 44 32 39 48 46 51 61 73 79 77 69 67 71 71 83 89 92 89 84 75 72 68 61 51 45 39 36 41 50 62
71 74 72 72 75 80 72 59 65 50 45 45 25 40 44 44 52 59 65 74 81 79 75 70 78 84 81 83 91 91 82 75 75 71 69 65 55 40 36 42 52 61 70
74 74 75 77 81 74 54 53 46 43 28 28 45 47 41 44 57 65 73 82 81 80 65 73 90 96 95 94 96 86 85 79 76 76 75 69 50 38 43 57 52 63 55
78 78 77 77 59 50 48 50 34 33 46 56 59 35 34 48 59 72 82 80 82 78 75 74 83 84 92 97 95 92 82 82 83 85 80 65 48 41 57 58 64 58 69
81 79 69 49 47 43 38 44 47 62 68 43 28 31 42 51 57 66 79 85 84 82 81 76 82 94 93 88 90 86 88 90 91 87 78 66 43 52 55 57 80 86 96
73 54 45 41 39 40 56 65 69 40 27 25 35 44 46 46 48 53 77 84 86 84 75 92 95 85 82 88 91 92 95 95 91 88 77 51 48 56 67 69 78 96 96
47 41 39 50 65 69 72 61 37 24 26 34 40 42 41 42 53 66 78 87 89 84 81 100 98 94 94 93 92 92 97 95 90 82 60 50 57 66 69 81 99 95 84
41 45 61 60 84 90 48 39 27 23 34 39 37 36 37 42 69 84 93 93 88 76 84 99 98 99 94 82 78 92 94 84 82 62 56 60 68 69 69 69 68 80 80
49 54 63 80 95 46 34 25 24 34 41 42 39 41 45 42 58 90 97 94 78 72 87 97 99 98 97 90 84 89 86 79 72 64 66 69 73 76 73 76 72 90 93
65 82 93 57 44 28 24 28 34 39 40 40 40 45 49 46 46 71 95 99 86 77 88 88 91 94 99 98 92 85 81 82 74 78 79 76 75 80 85 84 70 76 81
88 73 46 32 29 30 33 35 39 42 42 42 44 47 50 49 49 51 71 99 98 93 85 82 85 93 99 98 99 82 79 88 84 89 86 82 84 85 86 85 72 62 70
34 31 34 37 38 43 47 50 54 57 58 56 58 57 57 58 59 60 66 77 94 99 96 97 97 96 98 98 98 95 92 97 93 96 89 87 88 89 89 86 66 59 72
43 47 50 55 58 61 64 66 68 69 71 75 80 78 70 72 71 73 71 80 90 91 88 94 94 97 97 98 99 97 96 97 93 96 91 89 91 92 94 89 71 60 61
44 47 51 56 62 64 68 74 79 79 86 92 96 96 93 91 81 84 85 74 76 84 93 95 99 94 93 88 95 98 94 95 93 94 96 93 94 98 96 84 75 63 65
48 50 51 50 47 46 44 37 36 38 44 64 83 95 96 98 97 94 98 86 88 91 96 96 95 93 95 95 95 95 93 96 90 95 94 94 98 100 97 78 78 69 62
26 29 28 21 12 11 14 25 48 28 82 70 65 84 92 86 99 97 97 100 94 99 98 92 95 90 93 96 96 96 96 95 93 100 92 96 100 100 94 82 78 66 64
18 10 9 9 10 12 18 44 84 84 68 45 35 85 99 100 99 98 97 97 90 93 97 95 95 92 94 96 97 96 89 91 92 92 91 98 100 100 94 86 76 68 69
8 10 11 15 24 43 69 80 85 96 98 93 92 82 98 96 94 90 91 96 94 92 91 95 97 97 96 96 96 97 88 87 94 93 92 98 99 99 96 90 72 69 71
12 16 23 38 59 74 89 95 95 99 100 100 99 97 96 98 90 82 83 88 96 96 96 96 96 97 96 97 96 96 96 84 91 93 93 98 99 99 96 89 69 65 66
17 23 35 46 67 90 92 84 82 85 79 89 96 96 96 97 99 97 92 95 94 93 94 98 97 96 96 97 97 96 96 92 80 86 92 97 99 97 95 88 68 61 59
27 32 40 49 59 68 76 85 84 85 87 89 90 93 95 95 95 96 96 96 96 96 97 97 97 95 96 96 98 97 96 96 95 92 93 96 99 98 96 83 67 52 48
34 37 39 44 53 63 70 76 81 87 90 92 90 89 91 92 94 95 94 94 95 96 96 96 96 98 99 95 96 97 97 96 96 96 96 97 99 97 96 80 69 50 44
40 41 42 48 57 63 71 77 82 86 86 87 90 90 91 91 91 94 95 96 95 97 95 97 96 96 95 98 94 96 96 96 96 96 96 95 98 96 96 82 75 52 38
46 48 50 56 60 65 71 76 81 84 85 87 87 88 91 94 96 95 96 96 93 81 93 96 96 96 95 93 96 96 95 97 96 97 98 93 97 95 94 85 76 54 39
54 58 61 64 67 69 74 76 78 81 82 82 82 85 89 91 93 96 96 96 90 76 53 76 96 97 96 95 90 94 84 93 96 97 96 95 96 94 90 79 76 58 44

GFSGL_850_rhum_069.txt.gz
RH
74 83 89 87 78 82 86 94 84 88 87 87 88 78 50 45 48 49 45 52 47 57 63 71 78 80 77 66 58 80 92 98 94 82 97 91 78 79 82 65 49 37 31
67 80 82 81 83 92 100 98 93 87 84 90 82 51 54 53 45 45 51 49 62 66 69 78 83 82 78 67 71 93 95 98 100 95 86 84 82 81 71 62 47 35 32
64 67 73 93 98 89 96 94 84 92 92 67 50 55 49 45 46 51 47 49 57 63 72 82 84 81 76 82 92 97 97 100 100 100 95 86 86 82 81 78 60 36 36
65 70 95 100 95 88 90 92 86 77 65 49 47 40 59 66 59 41 41 43 45 50 66 78 78 75 73 82 97 100 96 96 98 100 92 86 88 89 86 78 70 75 74
95 100 97 89 81 93 96 79 70 74 49 40 55 74 62 37 32 35 36 36 35 39 47 55 67 72 75 76 85 100 100 100 100 97 86 84 86 82 83 76 82 81 85
99 91 84 79 100 96 66 74 68 52 72 77 80 65 32 24 32 36 35 33 33 40 46 56 70 80 81 74 67 97 100 100 98 91 86 90 89 86 94 88 92 91 84
97 88 90 99 77 61 70 66 72 75 84 67 48 32 26 29 32 30 30 33 36 38 54 71 84 90 81 69 69 98 90 86 88 96 99 100 100 100 90 91 93 91 88
89 98 88 61 54 66 79 80 88 76 66 52 41 30 35 32 32 32 34 37 40 38 45 67 89 88 84 75 83 99 95 91 91 88 90 100 100 90 71 98 100 100 100
92 78 58 62 72 73 83 81 77 59 42 30 29 32 33 32 35 38 44 47 47 48 48 50 62 71 81 83 88 99 97 94 88 84 86 94 90 78 69 100 100 100 99
64 60 63 68 78 84 81 61 40 30 30 32 34 41 51 57 60 68 72 72 76 76 68 60 52 51 77 89 91 96 100 91 91 92 90 92 87 82 80 90 100 100 99
61 63 71 77 82 61 42 32 30 32 36 39 46 51 57 63 67 74 80 86 88 95 96 80 68 59 63 94 92 90 87 79 95 97 92 98 83 90 100 100 100 100 100
66 67 80 74 47 35 33 35 39 45 48 50 46 36 29 20 14 14 20 38 90 100 96 97 94 77 67 84 100 92 90 94 97 97 97 89 93 100 100 100 100 92 95
91 85 40 37 36 37 39 41 35 24 13 8 7 7 10 38 77 75 72 69 44 77 93 95 97 97 92 83 86 98 98 97 96 97 94 97 95 100 99 94 91 91 88
38 38 36 35 32 24 16 11 7 6 9 17 43 56 45 72 88 89 91 94 93 100 88 88 96 99 95 96 90 81 83 95 98 98 98 98 96 95 95 99 98 100 100
36 30 22 18 14 9 6 6 8 13 22 31 48 61 76 90 97 89 97 97 100 97 100 94 100 98 95 95 95 80 79 94 96 94 100 96 96 96 94 100 97 100 100
20 18 13 9 7 6 7 8 10 15 22 36 53 66 77 79 79 80 86 90 93 95 98 97 97 98 95 96 96 89 87 92 92 93 95 97 97 96 96 100 96 100 100
14 10 8 7 7 7 8 9 13 20 20 26 35 45 65 70 69 75 85 90 93 94 98 96 97 97 96 97 95 96 96 98 96 98 97 97 95 94 95 100 100 100 100
9 7 8 8 9 10 12 15 19 23 27 30 32 39 46 52 59 65 72 80 79 89 100 98 96 97 97 97 97 97 97 97 97 97 98 96 95 93 98 94 100 100 100
9 10 10 12 14 16 19 21 22 25 28 31 34 36 35 44 52 58 66 75 84 90 91 94 98 98 97 97 97 99 100 98 97 98 98 96 93 91 95 94 97 95 92
12 14 15 17 19 22 24 27 29 32 38 40 43 46 45 45 50 57 64 70 80 87 87 92 95 96 96 96 98 97 98 100 97 98 98 96 95 90 91 95 96 95 93
16 18 20 23 25 27 30 34 36 42 48 51 54 58 62 65 68 72 73 74 79 83 88 89 89 91 96 96 96 96 96 96 97 98 98 97 96 94 95 98 94 95 84
21 23 25 28 30 34 37 41 46 52 56 58 58 60 63 66 69 72 76 78 80 86 90 91 92 96 95 96 95 95 96 98 98 98 96 97 96 95 96 97 95 94 82
26 28 31 34 38 41 45 50 55 59 61 63 65 65 65 64 63 62 61 60 60 62 72 87 92 93 96 96 96 96 95 96 97 96 95 98 98 96 95 96 93 94 77
31 34 38 41 44 48 52 56 60 64 67 69 69 64 58 54 54 55 55 55 56 56 57 57 68 92 96 96 97 96 97 97 96 96 97 96 97 99 96 96 95 94 76
39 42 46 49 52 55 60 64 68 70 69 64 58 54 54 56 58 60 60 61 62 62 60 60 60 59 69 87 93 95 96 96 97 96 96 96 96 98 97 96 95 95 75
50 52 55 59 63 67 70 71 73 71 64 59 57 57 59 62 65 66 68 69 72 74 74 72 70 68 61 54 56 65 63 93 93 96 96 96 96 96 96 96 96 94 78

GFSGL_850_rhum_072.txt.gz
RH
61 69 80 95 94 99 100 100 100 94 83 91 90 90 96 84 47 50 73 71 74 75 78 82 78 79 76 74 71 68 66 64 61 55 56 55 78 85 74 76 77 73 64
86 90 100 100 100 100 100 100 100 99 99 90 92 99 76 55 57 65 67 66 73 78 76 79 80 77 78 77 73 71 67 65 64 67 70 64 81 84 81 82 76 67 62
81 81 74 83 92 97 99 100 100 94 90 100 98 67 54 55 60 75 76 75 78 75 74 76 76 76 76 73 71 67 64 63 63 73 76 71 78 86 79 74 68 64 61
89 69 85 87 70 90 100 99 99 93 99 86 89 60 48 50 75 76 72 70 71 71 74 76 77 78 76 74 71 68 66 67 73 83 92 92 84 76 76 65 60 56 53
98 95 92 99 100 98 92 92 88 97 81 91 63 40 62 78 71 65 62 66 68 67 70 78 82 83 84 68 70 73 71 75 90 98 97 92 73 62 64 60 60 61 60
100 100 99 100 95 91 100 92 87 83 87 56 61 89 80 67 52 28 31 35 61 64 67 69 70 75 88 87 83 79 72 90 97 97 92 89 74 64 69 70 67 64 62
100 99 95 87 89 99 84 73 73 76 72 79 86 56 58 69 43 30 30 31 48 61 64 66 67 64 75 88 90 92 93 80 97 99 96 90 89 91 87 77 67 63 64
97 89 84 89 91 67 67 72 72 90 80 79 74 73 67 61 29 31 34 40 60 70 72 74 76 76 75 79 83 84 88 90 96 92 95 84 86 90 88 80 77 83 88
90 91 94 68 62 74 77 97 89 80 74 66 62 65 68 69 68 47 59 68 86 85 82 81 79 80 81 82 96 100 97 98 94 91 86 87 88 83 85 94 94 96 94
94 72 69 76 68 89 86 78 69 51 47 65 66 71 62 54 73 63 62 72 72 92 95 92 89 95 93 93 85 96 96 100 99 98 100 88 82 94 90 84 99 97 92
70 68 68 74 75 77 63 40 36 60 57 47 35 35 32 23 24 24 14 23 65 79 90 86 85 94 98 91 97 94 94 100 99 98 97 98 95 93 88 96 100 100 100
68 68 68 77 76 43 35 40 45 49 34 22 10 6 29 49 50 62 50 55 73 90 89 88 91 92 90 97 100 94 93 98 96 95 100 99 99 98 98 100 100 100 98
64 77 80 42 35 36 35 30 20 14 12 14 27 67 87 87 88 92 95 86 80 99 99 93 85 76 79 94 94 98 96 97 98 97 96 98 98 99 99 100 100 97 98
66 38 36 34 31 21 15 12 8 9 12 24 47 72 95 93 94 88 68 78 85 90 92 90 91 94 94 81 99 98 95 95 90 96 96 100 100 96 95 99 99 100 100
37 33 26 18 15 11 8 7 9 15 9 11 43 75 82 93 87 60 60 64 76 84 87 87 97 100 100 97 95 97 96 92 100 94 100 100 100 97 94 96 100 99 100
23 18 15 12 8 7 11 35 13 14 13 16 22 24 29 34 37 40 44 55 58 64 87 100 96 97 98 98 96 95 96 96 99 100 100 100 100 97 96 96 100 100 100
16 13 10 8 8 10 16 45 75 92 31 23 20 25 25 29 31 30 30 37 55 64 100 100 100 100 95 96 97 96 96 96 96 95 96 100 100 98 95 100 100 100 100
11 9 8 9 11 16 21 26 54 81 89 95 95 30 25 29 33 33 33 38 72 94 100 100 100 100 95 98 97 95 97 97 96 95 95 95 96 96 95 100 100 98 100
10 10 10 11 13 14 18 22 75 73 87 94 96 97 68 35 37 51 58 96 99 100 100 100 100 100 100 99 96 94 96 96 96 96 95 95 96 95 95 100 100 96 99
12 12 13 15 18 21 26 30 80 74 87 98 99 100 70 46 100 100 100 100 100 100 100 100 100 100 100 100 100 94 95 96 96 97 94 95 95 95 95 97 100 100 100
16 16 19 21 23 25 28 40 86 88 93 100 100 100 52 56 100 100 100 100 100 100 100 100 100 100 100 100 100 95 95 96 96 96 96 95 94 95 96 94 100 100 99
19 22 24 26 28 31 33 40 70 90 99 100 100 100 60 84 100 100 100 100 100 100 100 100 98 98 100 100 99 94 96 95 97 95 96 96 96 96 95 94 95 97 100
23 25 28 30 34 38 44 47 59 82 88 89 97 100 100 100 94 100 100 100 100 98 80 81 72 66 84 90 94 97 97 96 97 98 96 96 96 95 96 95 95 98 100
28 30 34 39 42 46 52 55 75 85 75 93 100 100 100 100 94 100 100 99 69 72 69 70 66 64 65 63 61 72 93 98 97 96 98 96 95 96 95 96 98 96 96
36 40 44 49 57 61 68 99 100 100 100 100 97 94 94 87 90 100 100 85 70 71 74 77 76 79 78 74 68 62 61 93 97 99 97 96 95 96 95 96 96 96 96
60 64 68 74 94 100 100 100 100 100 100 87 67 66 67 77 83 97 91 78 84 84 83 85 87 89 88 82 76 71 64 58 82 92 97 95 95 96 96 97 96 97 95

GFSGL_850_rhum_075.txt.gz
RH
77 95 100 99 100 99 100 100 100 100 98 98 98 99 91 92 89 92 76 72 74 76 76 77 78 76 71 68 66 64 62 59 59 57 52 51 54 58 61 77 72 76 71
77 93 99 99 98 98 100 100 100 100 100 98 99 95 100 99 89 81 80 75 71 70 74 76 71 66 68 70 69 65 64 62 61 60 57 54 54 60 60 94 82 75 63
79 98 97 97 99 98 98 95 95 94 98 90 98 100 98 91 82 76 73 75 76 74 73 68 67 66 66 66 66 65 63 58 57 57 58 59 59 61 64 81 85 73 70
94 97 96 99 100 100 100 100 95 95 82 92 99 96 90 88 77 69 73 73 68 64 63 64 66 67 67 67 67 65 63 61 60 57 58 62 67 67 79 78 82 75 70
100 100 100 100 100 100 100 98 96 86 84 92 94 78 66 67 71 76 73 63 58 57 60 60 60 62 66 71 73 68 72 71 71 68 65 69 77 84 80 82 94 80 80
98 99 100 100 99 99 87 79 85 96 97 87 86 69 77 84 74 63 45 25 36 56 56 54 55 56 59 61 64 72 82 83 84 80 82 80 80 92 89 89 90 81 72
100 100 100 100 100 95 99 100 96 81 81 72 79 88 87 76 67 57 34 28 32 55 59 60 60 56 59 63 65 67 78 91 95 97 94 87 87 89 91 82 80 82 72
98 100 100 97 98 100 92 80 79 74 92 93 86 79 75 67 62 58 47 41 50 73 74 73 72 70 70 70 74 81 79 72 84 92 99 98 89 88 94 95 96 86 76
100 98 93 94 94 79 69 78 86 94 85 80 70 63 64 67 69 70 63 67 78 83 88 86 82 83 81 80 82 89 89 76 88 90 87 86 89 91 82 81 88 94 85
85 83 88 82 78 84 80 91 83 77 64 58 60 67 73 71 83 86 67 66 34 32 46 76 68 67 69 72 85 89 91 86 89 98 95 93 89 82 74 76 80 91 88
76 76 79 82 75 82 77 73 65 61 65 76 48 35 30 40 55 51 25 24 34 37 30 42 63 80 83 81 84 82 81 88 94 96 97 94 97 96 96 91 91 90 86
81 79 76 75 71 74 70 67 67 67 77 71 30 16 52 65 76 75 66 46 30 39 51 64 91 83 73 76 82 79 75 83 100 93 96 95 95 96 91 96 97 94 90
75 75 76 75 69 60 60 60 56 49 57 71 52 63 83 67 84 88 82 25 14 22 34 51 64 65 68 83 80 88 85 91 100 97 92 94 89 96 96 95 93 92 92
74 74 70 59 50 42 38 39 52 51 51 42 68 84 89 82 87 76 16 18 20 28 44 44 54 75 98 97 93 96 85 86 98 94 90 91 92 96 96 95 97 96 95
69 58 54 36 37 26 30 28 26 13 10 9 29 21 44 36 65 20 20 23 27 29 41 63 95 94 95 96 91 99 96 93 98 94 92 92 94 96 95 98 96 96 95
50 50 38 29 22 32 49 32 18 21 14 9 9 13 18 19 20 22 24 24 30 31 50 94 100 100 100 100 100 95 97 94 94 96 94 93 96 93 97 98 92 94 98
47 21 14 13 23 39 37 64 68 72 60 53 50 46 24 21 24 28 29 28 41 80 94 93 99 100 100 100 100 100 98 92 96 96 88 97 95 92 92 93 96 95 94
15 12 19 25 34 42 75 61 68 85 95 94 96 96 73 46 30 33 37 43 97 96 95 95 98 100 100 100 100 100 98 90 88 89 97 97 96 96 96 94 95 93 96
14 12 10 11 11 12 17 35 57 89 95 95 92 94 100 99 41 62 99 100 100 100 99 100 100 100 100 100 100 100 100 98 95 95 95 98 96 97 97 96 95 94 95
15 11 11 15 21 29 40 55 83 96 97 96 96 96 100 86 52 100 100 100 100 100 100 100 100 100 100 100 100 100 100 100 97 96 95 96 97 96 95 96 94 95 96
23 16 15 18 24 29 34 69 97 99 100 100 100 100 97 88 82 100 100 100 100 100 100 100 100 100 100 100 100 100 100 100 100 97 96 95 96 95 97 95 95 95 94
17 18 20 22 25 60 88 48 98 100 100 100 100 100 100 100 100 100 100 99 98 100 100 100 100 100 100 100 100 100 100 100 100 100 96 95 95 95 95 97 94 95 95
20 23 29 56 66 75 88 100 100 100 100 100 100 100 100 100 99 100 100 100 100 100 100 100 100 100 100 100 100 100 100 100 100 100 97 95 95 95 95 95 97 95 95
28 37 66 89 100 71 100 100 100 100 100 100 100 100 100 100 100 100 100 100 100 100 100 100 100 100 100 100 100 100 100 100 98 98 100 96 95 95 96 95 95 97 95
82 100 100 100 100 100 100 100 100 100 100 100 100 100 100 100 100 100 100 100 100 100 100 100 98 100 100 100 99 95 100 100 94 77 84 97 96 94 94 95 95 97 95
100 100 100 100 100 100 100 100 100 100 100 100 100 100 100 100 100 100 100 100 100 100 95 100 100 100 98 93 100 100 97 95 92 84 77 92 91 92 95 97 96 96 96

GFSGL_850_rhum_078.txt.gz
RH
75 79 86 91 94 100 97 98 100 100 98 98 100 100 100 100 100 88 86 91 79 83 82 77 76 73 76 77 72 69 68 68 67 64 63 62 60 58 54 55 60 67 75
72 76 85 86 85 98 99 99 100 98 100 100 94 96 100 97 91 95 94 85 90 84 80 74 72 78 75 70 70 71 71 69 68 68 66 64 62 62 61 62 63 64 68
67 73 83 78 78 99 100 100 99 100 99 100 93 90 88 90 97 93 92 86 85 79 78 75 75 72 68 67 67 68 69 70 70 69 67 65 64 64 66 64 65 66 69
67 70 78 66 95 99 98 100 100 100 100 100 77 82 91 86 86 85 80 76 74 75 72 67 64 63 63 64 65 69 72 74 73 70 69 68 68 68 69 73 62 60 76
69 70 91 100 100 100 100 99 97 99 100 82 88 96 99 85 68 70 68 77 75 66 63 58 56 58 56 58 58 59 60 62 65 69 76 70 70 68 63 72 85 86 88
93 100 99 100 100 98 100 100 100 100 85 97 97 97 75 69 70 72 77 76 67 40 21 24 31 46 45 53 55 57 58 65 66 69 82 94 89 80 76 70 82 97 94
100 100 100 98 100 100 99 93 88 90 98 88 86 70 74 86 90 81 71 55 36 23 24 29 49 60 70 70 72 75 76 78 80 83 96 97 94 81 84 79 89 97 91
99 98 98 99 100 99 88 90 98 96 84 76 83 86 89 81 73 68 62 54 46 42 48 65 74 73 76 83 82 80 80 79 85 98 98 93 86 84 95 81 84 92 83
98 99 100 100 100 100 100 96 76 78 94 94 89 81 74 68 67 67 64 63 60 57 50 40 26 29 33 38 50 48 44 38 39 69 85 84 90 91 98 98 90 88 85
99 100 100 100 99 97 81 78 87 95 86 80 64 62 66 68 71 69 49 44 42 21 11 11 12 12 14 34 71 78 78 64 75 64 68 80 78 94 96 81 77 86 82
92 90 90 89 82 86 90 91 82 73 61 61 56 55 59 56 52 30 17 18 17 17 13 6 6 10 22 55 67 77 79 88 87 82 72 76 73 88 98 89 77 72 70
81 79 79 83 82 82 77 73 64 64 63 60 49 47 30 32 53 41 28 32 43 29 8 8 9 12 18 29 49 64 88 100 96 96 85 83 87 91 93 97 96 93 90
79 80 77 77 71 74 68 71 68 62 61 57 42 38 47 51 63 75 72 66 30 7 8 9 10 13 32 80 94 96 97 96 98 100 94 97 90 92 96 96 91 97 96
76 76 75 69 59 54 58 54 46 47 51 55 49 51 52 52 48 40 34 15 9 10 11 11 13 39 84 86 90 90 92 97 100 96 100 96 96 97 95 95 98 97 97
75 72 66 58 52 43 42 36 29 30 29 24 26 33 24 22 16 13 12 12 13 16 16 18 33 100 78 72 73 94 98 96 93 97 93 92 94 94 88 93 95 96 98
64 60 58 44 38 39 30 31 28 27 27 26 20 14 14 16 16 17 17 17 19 24 29 52 98 96 88 91 99 100 99 96 93 94 93 97 95 94 96 96 99 94 96
56 55 46 31 27 30 35 49 67 64 66 61 48 45 58 59 44 32 26 23 27 64 89 93 95 92 95 93 96 100 100 100 100 99 90 95 96 95 96 90 93 96 98
41 35 31 28 25 24 25 27 33 46 70 74 74 87 89 89 80 67 49 47 79 93 92 98 100 97 95 94 96 100 100 100 100 98 93 94 96 96 96 99 97 95 95
48 47 32 55 54 14 12 13 17 30 48 61 74 93 99 99 96 88 58 100 99 90 93 98 94 93 95 96 100 100 100 100 100 100 95 95 94 96 96 98 96 95 96
93 92 57 29 13 17 22 25 36 57 88 87 91 97 97 94 91 72 62 99 99 94 97 94 94 95 97 98 100 100 100 100 100 100 100 97 95 96 96 98 98 97 96
94 69 18 30 39 23 28 35 51 71 85 99 96 98 100 99 93 80 100 100 97 100 99 94 99 100 98 100 100 100 100 100 100 100 100 98 95 95 96 96 95 97 96
25 60 61 21 22 30 41 52 53 70 84 98 100 99 99 100 100 100 98 97 98 100 97 100 100 100 100 100 100 100 100 100 100 100 100 100 91 96 96 96 95 96 97
62 23 24 33 43 54 54 76 97 96 100 99 95 96 96 98 100 97 98 98 96 99 100 100 100 100 100 100 100 100 100 100 100 100 95 83 82 91 96 95 95 95 96
28 35 49 65 90 90 92 100 97 96 100 100 97 97 99 99 98 98 98 100 100 100 100 100 100 100 98 100 100 100 100 100 100 100 100 90 77 80 95 96 96 96 96
78 83 100 100 100 100 99 99 100 99 100 100 100 100 99 100 100 100 100 100 100 100 100 100 98 100 100 99 96 100 100 100 100 100 100 96 84 77 92 96 96 95 96
99 100 100 100 100 100 100 99 100 100 100 100 100 99 100 100 100 100 100 100 100 100 98 84 91 95 97 95 99 100 100 100 100 100 100 99 86 72 88 96 96 96 95

GFSGL_850_rhum_081.txt.gz
RH
64 64 72 74 78 81 82 70 73 70 95 94 92 95 95 97 92 90 95 97 88 88 88 85 88 81 77 75 74 76 74 72 70 68 67 66 67 68 66 66 67 67 72
70 72 73 75 78 75 87 87 92 88 96 98 100 97 97 99 85 96 98 90 87 88 91 86 80 76 74 77 79 74 70 70 73 74 74 73 72 69 70 68 67 67 82
72 72 70 75 78 74 88 85 100 100 98 99 100 100 99 99 100 100 90 93 89 94 85 82 80 77 77 77 73 68 68 69 70 71 74 74 75 73 69 70 65 62 61
68 72 72 78 84 73 72 73 99 100 100 96 94 99 100 100 99 93 92 88 86 77 82 78 77 75 70 64 58 58 63 65 66 65 63 62 62 63 67 71 67 69 60
70 68 71 74 72 72 65 79 99 98 95 99 100 99 90 89 94 93 84 73 79 82 76 74 70 64 56 45 58 58 56 57 59 61 66 71 72 72 74 75 90 74 66
60 63 63 71 87 98 95 98 99 100 100 100 94 88 90 98 96 80 68 75 78 74 78 70 52 19 19 31 43 55 67 73 74 79 82 86 86 90 96 91 98 96 87
65 75 97 100 99 99 98 100 100 100 100 95 94 94 96 86 88 78 79 78 78 77 62 34 20 22 31 48 62 70 74 77 81 85 85 84 90 96 99 98 83 95 80
99 99 99 98 99 99 100 100 100 100 97 95 91 90 81 87 92 87 87 80 68 54 39 36 44 50 52 53 38 24 20 17 23 25 30 32 47 59 74 87 82 94 91
96 90 93 94 99 100 100 100 100 100 99 87 83 82 82 84 85 80 72 63 55 52 54 56 52 30 15 13 8 8 8 9 21 41 59 58 62 65 88 96 93 98 96
89 89 97 100 100 100 98 99 99 88 82 91 92 90 86 81 73 68 62 59 63 56 40 20 15 11 6 7 11 17 18 17 44 56 68 65 65 66 64 65 75 100 96
87 88 96 100 100 100 99 87 81 95 97 92 84 75 68 65 66 65 63 50 30 21 16 12 5 5 6 9 16 31 70 80 88 98 90 83 69 66 66 86 92 100 96
98 98 100 100 97 87 82 90 92 88 85 74 72 62 66 69 59 37 24 22 17 22 20 7 6 7 8 11 37 82 100 98 96 88 96 96 87 90 70 93 87 96 94
88 87 84 84 88 90 91 83 78 69 64 61 62 64 49 34 29 33 33 29 34 36 11 8 9 11 13 29 54 62 59 76 89 100 99 100 100 88 92 94 86 87 97
79 82 84 81 78 76 74 72 68 65 61 55 48 46 40 26 29 38 44 40 23 10 10 9 12 18 47 85 76 51 42 70 93 98 94 98 94 97 91 94 95 94 93
80 76 74 70 70 63 64 66 63 55 53 51 45 38 40 41 37 23 18 12 11 13 13 16 25 53 84 84 73 60 50 48 66 76 86 87 90 95 97 96 97 93 96
76 71 62 56 51 55 56 41 38 30 27 25 30 25 22 21 25 30 35 27 20 21 26 48 75 97 94 90 85 81 74 71 73 79 98 91 94 92 94 97 97 97 95
68 64 63 78 83 65 53 51 39 55 85 83 55 64 67 62 64 63 72 66 37 41 73 94 100 100 97 96 90 87 85 82 92 100 88 90 98 90 94 95 99 98 96
65 82 94 94 93 73 50 82 95 76 78 64 74 75 84 84 88 93 92 89 68 76 89 84 90 100 100 93 91 93 95 99 99 96 90 91 99 99 91 95 96 98 100
95 96 96 95 96 96 92 56 30 71 93 81 79 81 92 99 100 100 98 85 70 100 100 96 95 96 92 93 95 97 98 99 99 98 90 95 98 97 92 96 95 98 97
96 96 96 95 94 89 88 95 89 67 60 85 90 96 100 100 100 95 86 76 98 100 100 100 100 98 94 100 100 98 98 97 94 91 89 100 98 93 94 95 96 95 96
96 95 94 94 96 94 86 76 58 65 72 84 98 100 100 99 97 96 99 100 100 100 100 100 99 97 99 100 98 97 97 95 96 96 100 91 85 76 83 96 96 96 97
93 94 93 73 56 43 48 56 63 76 91 90 96 100 99 93 94 100 100 100 100 100 98 99 100 100 98 100 100 100 98 100 100 100 94 90 85 74 72 89 96 96 96
54 36 37 44 52 60 69 70 82 97 96 93 99 98 97 97 98 100 100 100 100 100 100 100 100 100 97 100 100 100 100 100 100 100 100 100 94 88 79 76 94 96 96
64 71 75 81 85 92 94 97 98 99 100 100 100 100 100 100 100 99 100 100 100 100 100 100 100 97 96 92 96 99 100 100 100 100 100 100 99 94 88 78 90 97 96
85 87 92 93 94 97 99 100 100 100 100 100 100 100 100 99 95 99 100 100 100 98 98 94 93 86 81 93 100 100 100 100 100 100 100 100 99 93 92 83 86 97 97
92 94 96 98 100 100 100 100 100 100 100 100 100 99 99 100 100 99 99 98 93 94 94 85 75 69 89 99 100 98 99 99 98 100 100 100 99 92 89 81 87 97 96

GFSGL_850_rhum_087.txt.gz
RH
61 72 79 80 81 81 74 72 74 78 77 74 76 78 81 89 95 86 96 98 99 95 89 90 96 94 89 92 96 96 84 76 76 76 78 76 72 64 55 63 62 59 61
47 58 58 62 74 76 79 83 87 88 85 81 82 86 97 100 91 91 100 99 98 98 97 95 94 94 97 99 91 80 79 78 78 82 81 75 71 64 52 45 45 53 58
55 55 57 62 61 61 65 71 77 85 100 100 99 90 88 99 98 99 98 92 88 86 96 100 100 100 100 93 87 80 80 79 81 78 74 68 56 46 47 48 53 56 59
61 63 63 63 61 60 64 70 75 90 86 62 70 76 82 100 98 93 95 98 100 99 100 100 100 99 94 93 84 82 80 79 76 70 62 52 50 48 50 53 56 52 58
58 65 64 66 68 72 75 80 82 85 91 76 70 74 82 100 99 95 89 96 100 100 100 100 100 95 96 90 83 80 76 70 65 56 44 42 40 46 52 56 53 43 26
49 59 68 73 77 81 85 88 95 100 100 99 78 94 95 100 100 100 94 96 100 100 100 100 100 97 86 81 75 70 67 52 32 30 38 49 44 47 40 25 20 24 30
59 66 67 72 78 82 90 100 100 99 100 96 92 99 100 99 100 100 100 100 100 100 99 98 98 89 77 79 62 63 46 38 43 49 47 29 19 14 18 22 34 48 62
60 62 65 73 81 98 100 99 99 97 95 100 100 100 100 100 100 100 99 96 97 99 92 99 99 91 91 71 58 52 53 43 25 16 12 9 12 19 33 51 72 84 84
70 79 91 99 100 100 99 97 97 100 100 100 100 100 100 100 100 100 100 100 96 98 100 96 98 98 82 64 54 29 16 10 7 7 7 10 20 42 61 84 96 100 97
94 96 97 100 100 100 100 100 100 100 100 100 100 100 100 100 100 100 100 99 100 100 99 98 83 72 54 27 17 9 6 6 8 11 13 15 23 28 41 63 84 100 100
99 100 100 99 96 98 98 100 100 100 100 100 100 100 100 100 98 100 100 99 98 98 91 72 53 36 27 14 8 7 9 11 20 35 38 30 21 24 52 77 97 100 95
100 96 93 97 92 91 100 100 100 100 100 100 99 99 100 100 100 99 98 98 98 96 69 48 40 28 14 9 8 10 17 35 45 45 36 27 23 22 30 64 92 96 100
98 97 93 91 99 100 100 100 100 100 98 96 100 100 100 98 98 98 97 97 94 59 53 45 29 28 30 13 18 33 42 45 49 44 38 35 33 31 28 34 58 88 94
97 98 98 99 99 99 99 99 100 100 100 100 99 98 98 98 96 96 93 85 82 94 77 75 77 28 19 26 39 51 58 61 60 57 51 43 38 38 37 38 37 60 70
89 89 91 94 96 97 99 99 100 99 98 97 97 96 96 96 96 96 96 95 95 94 73 59 63 62 50 56 70 78 79 75 72 67 60 53 50 47 45 50 50 55 75
80 85 88 89 96 98 98 97 97 97 97 97 97 96 95 95 95 96 95 95 96 95 95 94 94 87 80 86 94 94 90 85 82 80 77 72 60 52 48 51 62 64 74
78 76 92 99 98 98 98 98 97 97 96 96 97 97 96 96 95 96 96 95 95 95 95 95 95 96 96 96 96 96 95 93 92 93 91 86 77 66 51 54 66 73 69
94 98 98 98 97 97 97 97 97 96 96 95 95 95 95 95 95 95 95 95 95 95 95 96 97 98 100 100 100 100 99 96 96 97 94 90 84 77 70 61 59 68 74
96 96 96 96 96 96 96 95 95 95 95 95 95 95 97 96 97 98 97 96 95 96 98 99 100 100 100 100 100 99 99 98 96 99 98 92 94 93 82 76 68 64 70
95 96 96 96 95 93 93 92 90 89 89 91 94 96 97 97 96 96 96 97 98 100 100 99 100 100 100 98 97 99 99 96 97 100 99 100 99 95 91 87 79 71 67
94 91 88 83 77 66 57 56 62 71 84 93 98 100 100 100 100 99 99 99 99 100 100 100 100 100 100 100 100 100 100 98 98 99 100 99 98 95 93 90 90 88 82
63 55 52 55 61 68 75 82 85 89 92 96 100 100 100 100 99 99 98 98 99 100 100 100 100 100 100 100 100 100 100 99 97 100 100 100 98 92 92 95 93 91 87
74 75 75 74 72 72 71 74 79 83 88 91 93 93 94 96 98 97 95 96 98 99 99 98 99 100 100 100 100 100 96 80 86 100 100 100 96 93 95 95 97 93 89
46 42 45 50 57 63 69 78 85 89 92 96 97 98 100 99 99 100 100 100 98 98 99 100 100 100 96 85 79 76 76 86 100 100 100 100 99 96 95 98 100 100 96
42 45 46 49 56 66 74 79 84 89 93 93 93 97 100 100 100 100 99 99 99 99 96 92 87 83 81 78 77 78 91 100 100 100 100 100 98 97 100 100 100 100 98
31 35 44 52 56 60 69 77 82 84 85 88 93 96 97 98 98 97 96 95 92 89 86 85 84 82 80 82 91 99 100 100 100 100 100 100 100 99 100 100 100 100 98

GFSGL_850_rhum_093.txt.gz
RH
43 50 61 64 65 67 62 62 63 66 66 67 65 64 61 59 58 59 60 69 87 92 94 92 95 96 100 96 100 96 99 95 98 99 91 86 88 88 75 73 75 74 70
36 38 40 41 43 43 48 45 51 55 58 58 57 58 57 54 52 61 75 76 82 89 89 100 90 86 89 91 100 100 98 94 93 100 92 89 95 79 89 76 78 76 72
39 38 37 39 40 40 38 37 39 40 40 43 46 51 56 66 81 88 94 97 98 91 100 98 93 77 87 97 99 100 99 100 100 99 94 98 87 98 96 90 77 72 55
41 40 40 39 40 44 48 51 54 57 61 66 70 74 75 77 85 85 69 78 100 99 100 98 86 90 99 100 100 100 100 100 100 100 100 95 100 100 99 75 67 58 38
52 51 48 47 46 50 53 58 59 60 61 64 72 76 78 81 81 88 87 100 100 84 96 100 98 99 100 100 100 100 100 100 100 100 100 100 100 98 98 96 54 44 41
50 54 63 64 62 58 57 57 62 66 73 82 89 88 88 93 93 95 100 100 99 100 100 99 99 100 100 100 100 100 100 100 100 100 100 100 99 98 97 88 55 31 51
52 61 65 70 73 75 78 81 87 90 92 92 92 100 100 99 100 100 100 100 100 100 100 100 100 99 100 99 99 100 100 100 100 100 98 97 97 98 77 34 17 16 47
58 64 70 76 80 86 94 97 98 98 100 100 100 100 99 100 100 100 100 100 100 100 100 100 100 100 100 99 100 100 100 99 98 97 98 96 59 24 13 17 17 21 32
65 74 81 91 98 99 99 100 100 100 100 100 100 100 100 100 99 99 98 100 100 100 100 100 100 100 99 100 100 98 98 98 96 79 55 60 36 19 21 22 24 57 88
99 99 100 100 100 100 100 100 100 100 100 100 100 99 99 99 99 98 99 100 100 100 100 100 98 98 98 97 97 96 94 94 91 77 50 59 71 54 47 34 67 91 100
99 99 99 100 100 100 100 100 100 100 100 97 99 99 100 100 100 100 100 100 100 100 99 98 97 97 97 97 97 96 93 84 63 69 83 72 80 91 94 95 95 94 74
100 100 100 100 99 97 93 91 91 100 100 100 100 100 100 100 100 100 100 98 98 97 97 97 97 97 96 95 95 95 96 96 96 95 95 95 95 96 96 96 96 95 95
99 94 95 94 92 96 97 99 100 100 100 100 100 100 100 98 97 97 97 97 97 96 96 95 95 95 95 96 96 95 96 96 96 96 95 95 95 96 95 95 94 94 71
89 88 98 93 100 99 100 100 99 99 99 99 97 97 97 97 96 95 95 95 95 95 95 95 95 95 94 95 95 95 96 95 95 96 96 96 96 96 95 95 76 61 59
94 100 99 99 99 99 98 98 96 96 97 96 96 96 95 94 95 94 94 93 90 88 88 88 91 90 94 96 96 96 96 96 96 97 97 98 98 100 100 100 100 100 100
85 92 96 97 97 96 95 94 95 94 93 93 93 92 95 98 98 96 95 94 94 93 99 100 100 100 100 100 100 100 99 100 100 100 100 100 100 100 100 100 100 100 100
84 94 95 93 93 92 93 93 93 97 93 91 94 91 92 95 97 95 94 94 90 88 100 100 100 100 100 100 100 100 100 100 100 100 100 100 100 100 100 100 100 100 100
93 93 90 90 89 88 88 90 92 94 92 93 100 99 98 96 94 91 88 88 85 100 100 100 100 100 100 100 100 100 100 100 100 100 100 100 100 100 100 100 100 100 100
86 85 84 84 83 81 78 73 69 67 68 73 80 79 79 81 82 74 66 62 83 100 100 100 100 100 100 100 100 100 100 100 100 100 100 100 100 100 100 100 100 100 100
82 80 72 65 61 61 63 64 60 54 50 49 49 52 52 46 42 49 54 62 71 96 98 100 100 100 100 100 100 100 100 100 100 100 100 100 100 100 100 100 100 100 100
62 63 62 52 33 25 23 26 30 34 40 45 44 45 42 45 55 63 68 71 74 76 78 80 83 88 98 100 100 100 100 100 100 100 100 100 100 100 100 100 100 100 100
29 18 15 15 17 18 18 20 21 24 27 33 41 48 55 58 62 65 69 71 73 76 79 80 80 81 82 82 84 85 84 84 89 100 100 100 100 100 100 100 100 100 100
11 11 11 12 13 14 15 19 25 32 40 46 52 54 55 58 61 64 66 67 70 72 74 76 77 78 79 79 80 82 82 83 86 92 100 100 100 100 100 100 100 100 100
8 8 9 11 13 19 26 32 39 43 48 50 52 54 56 58 60 63 67 71 72 73 76 76 77 76 74 74 76 80 92 97 99 100 100 100 100 100 100 100 100 100 100
9 11 14 20 26 33 38 41 44 46 49 51 54 58 62 64 66 68 69 68 68 67 66 67 67 68 70 78 93 97 99 100 100 100 100 100 99 100 100 100 100 100 100
16 20 26 31 35 39 41 43 46 50 54 58 61 63 64 65 66 67 66 66 64 64 65 69 76 86 92 92 95 97 98 100 100 100 100 100 100 100 100 100 100 100 100